Wetterdaten: aktuell Samstag, 20.07.2019 09:30
Datum Zeit Temp. 2m Temp. 5cm Feuchte 2m Luftdruck Regen Wind Richtung Richtung Sonnenschein ET UV Solar Taupunkt Windchill Windben Empfang
20.07.2019 09:30 20,9 C 28,9 C 61 % 1016,3 hPa 0,0 l/m 1,6 km/h (1 Bft) O-SO 112 1 min 0,000 mm 2,8 UV-I 524 W/m 13,1 C 20,9 C 3,2 km/h (1 Bft) 95,65 %
20.07.2019 09:29 20,7 C 27,8 C 61 % 1016,2 hPa 0,0 l/m 1,6 km/h (1 Bft) O-SO 112 1 min 0,000 mm 2,8 UV-I 527 W/m 12,9 C 20,7 C 3,2 km/h (1 Bft) 100,00 %
20.07.2019 09:28 20,5 C 27,2 C 62 % 1016,2 hPa 0,0 l/m 3,2 km/h (1 Bft) SO 135 1 min 0,000 mm 2,7 UV-I 506 W/m 13,0 C 20,5 C 4,8 km/h (1 Bft) 100,00 %
20.07.2019 09:27 20,5 C 27,2 C 61 % 1016,2 hPa 0,0 l/m 4,8 km/h (1 Bft) O-SO 112 1 min 0,000 mm 2,7 UV-I 501 W/m 12,7 C 20,5 C 6,4 km/h (2 Bft) 100,00 %
20.07.2019 09:26 20,4 C 26,7 C 60 % 1016,2 hPa 0,0 l/m 4,8 km/h (1 Bft) SO 135 1 min 0,000 mm 2,7 UV-I 508 W/m 12,4 C 20,4 C 6,4 km/h (2 Bft) 91,30 %
20.07.2019 09:25 20,6 C 26,7 C 60 % 1016,3 hPa 0,0 l/m 8,0 km/h (2 Bft) SO 135 1 min 0,000 mm 2,7 UV-I 513 W/m 12,6 C 20,0 C 14,5 km/h (3 Bft) 100,00 %
20.07.2019 09:24 20,5 C 27,8 C 61 % 1016,2 hPa 0,0 l/m 6,4 km/h (2 Bft) SO 135 1 min 0,000 mm 2,6 UV-I 485 W/m 12,7 C 20,5 C 12,9 km/h (3 Bft) 100,00 %
20.07.2019 09:23 20,4 C 27,2 C 61 % 1016,2 hPa 0,0 l/m 4,8 km/h (1 Bft) SO 135 1 min 0,000 mm 2,6 UV-I 476 W/m 12,6 C 20,4 C 6,4 km/h (2 Bft) 100,00 %
20.07.2019 09:22 20,4 C 27,8 C 62 % 1016,2 hPa 0,0 l/m 4,8 km/h (1 Bft) S-SO 157 1 min 0,000 mm 2,5 UV-I 457 W/m 12,9 C 20,4 C 6,4 km/h (2 Bft) 95,65 %
20.07.2019 09:21 20,3 C 27,2 C 62 % 1016,2 hPa 0,0 l/m 3,2 km/h (1 Bft) SO 135 1 min 0,000 mm 2,5 UV-I 462 W/m 12,8 C 20,3 C 6,4 km/h (2 Bft) 100,00 %
20.07.2019 09:20 20,3 C 27,2 C 61 % 1016,3 hPa 0,0 l/m 4,8 km/h (1 Bft) SO 135 1 min 0,000 mm 2,5 UV-I 454 W/m 12,5 C 20,3 C 8,0 km/h (2 Bft) 100,00 %
20.07.2019 09:19 20,2 C 27,2 C 62 % 1016,2 hPa 0,0 l/m 3,2 km/h (1 Bft) O-SO 112 1 min 0,000 mm 2,5 UV-I 448 W/m 12,7 C 20,2 C 6,4 km/h (2 Bft) 100,00 %
20.07.2019 09:18 20,1 C 27,8 C 61 % 1016,2 hPa 0,0 l/m 3,2 km/h (1 Bft) O-SO 112 1 min 0,000 mm 2,5 UV-I 455 W/m 12,3 C 20,1 C 4,8 km/h (1 Bft) 100,00 %
20.07.2019 09:17 20,1 C 28,3 C 62 % 1016,2 hPa 0,0 l/m 4,8 km/h (1 Bft) O-SO 112 1 min 0,000 mm 2,4 UV-I 450 W/m 12,6 C 20,1 C 8,0 km/h (2 Bft) 100,00 %
20.07.2019 09:16 20,1 C 27,2 C 62 % 1016,2 hPa 0,0 l/m 3,2 km/h (1 Bft) O-SO 112 1 min 0,000 mm 2,4 UV-I 431 W/m 12,6 C 20,1 C 6,4 km/h (2 Bft) 100,00 %
20.07.2019 09:15 20,0 C 26,7 C 62 % 1016,2 hPa 0,0 l/m 3,2 km/h (1 Bft) O 90 1 min 0,000 mm 2,3 UV-I 404 W/m 12,5 C 20,0 C 4,8 km/h (1 Bft) 95,65 %
20.07.2019 09:14 19,9 C 26,7 C 62 % 1016,2 hPa 0,0 l/m 6,4 km/h (2 Bft) SO 135 1 min 0,000 mm 2,3 UV-I 396 W/m 12,4 C 19,9 C 11,3 km/h (2 Bft) 95,65 %
20.07.2019 09:13 19,9 C 27,2 C 62 % 1016,2 hPa 0,0 l/m 6,4 km/h (2 Bft) SO 135 1 min 0,000 mm 2,3 UV-I 399 W/m 12,4 C 19,9 C 8,0 km/h (2 Bft) 100,00 %
20.07.2019 09:12 19,8 C 26,1 C 62 % 1016,2 hPa 0,0 l/m 1,6 km/h (1 Bft) O-SO 112 1 min 0,000 mm 2,3 UV-I 403 W/m 12,3 C 19,8 C 8,0 km/h (2 Bft) 100,00 %
20.07.2019 09:11 19,8 C 26,1 C 62 % 1016,2 hPa 0,0 l/m 3,2 km/h (1 Bft) O-SO 112 1 min 0,000 mm 2,2 UV-I 383 W/m 12,3 C 19,8 C 4,8 km/h (1 Bft) 100,00 %
20.07.2019 09:10 19,7 C 25,0 C 62 % 1016,2 hPa 0,0 l/m 1,6 km/h (1 Bft) O-SO 112 1 min 0,000 mm 2,2 UV-I 385 W/m 12,2 C 19,7 C 4,8 km/h (1 Bft) 100,00 %
20.07.2019 09:09 19,7 C 24,4 C 62 % 1016,1 hPa 0,0 l/m 3,2 km/h (1 Bft) O-SO 112 1 min 0,000 mm 2,2 UV-I 378 W/m 12,2 C 19,7 C 6,4 km/h (2 Bft) 100,00 %
20.07.2019 09:08 19,7 C 23,9 C 62 % 1016,1 hPa 0,0 l/m 6,4 km/h (2 Bft) SO 135 1 min 0,000 mm 2,2 UV-I 380 W/m 12,2 C 19,7 C 11,3 km/h (2 Bft) 100,00 %
20.07.2019 09:07 19,6 C 23,3 C 62 % 1016,2 hPa 0,0 l/m 6,4 km/h (2 Bft) SO 135 1 min 0,000 mm 2,2 UV-I 364 W/m 12,1 C 19,6 C 11,3 km/h (2 Bft) 95,65 %
20.07.2019 09:06 19,6 C 22,2 C 63 % 1016,2 hPa 0,0 l/m 4,8 km/h (1 Bft) S-SO 157 1 min 0,000 mm 2,0 UV-I 299 W/m 12,4 C 19,6 C 8,0 km/h (2 Bft) 100,00 %
20.07.2019 09:05 19,6 C 21,7 C 62 % 1016,1 hPa 0,0 l/m 3,2 km/h (1 Bft) O-SO 112 1 min 0,000 mm 1,8 UV-I 227 W/m 12,1 C 19,6 C 4,8 km/h (1 Bft) 100,00 %
20.07.2019 09:04 19,6 C 21,1 C 62 % 1016,2 hPa 0,0 l/m 4,8 km/h (1 Bft) O-SO 112 1 min 0,000 mm 1,7 UV-I 192 W/m 12,1 C 19,6 C 6,4 km/h (2 Bft) 100,00 %
20.07.2019 09:03 19,6 C 21,1 C 62 % 1016,1 hPa 0,0 l/m 3,2 km/h (1 Bft) O-SO 112 1 min 0,000 mm 1,6 UV-I 165 W/m 12,1 C 19,6 C 4,8 km/h (1 Bft) 100,00 %
20.07.2019 09:02 19,6 C 21,1 C 62 % 1016,2 hPa 0,0 l/m 4,8 km/h (1 Bft) O-SO 112 1 min 0,000 mm 1,6 UV-I 163 W/m 12,1 C 19,6 C 6,4 km/h (2 Bft) 100,00 %
20.07.2019 09:01 19,7 C 21,7 C 62 % 1016,2 hPa 0,0 l/m 4,8 km/h (1 Bft) O-SO 112 0 min 0,000 mm 1,5 UV-I 146 W/m 12,2 C 19,7 C 6,4 km/h (2 Bft) 100,00 %
20.07.2019 09:00 19,7 C 21,7 C 62 % 1016,2 hPa 0,0 l/m 4,8 km/h (1 Bft) SO 135 0 min 0,178 mm 1,4 UV-I 142 W/m 12,2 C 19,7 C 8,0 km/h (2 Bft) 95,65 %
20.07.2019 08:59 19,8 C 22,2 C 62 % 1016,1 hPa 0,0 l/m 4,8 km/h (1 Bft) SO 135 0 min 0,000 mm 1,4 UV-I 142 W/m 12,3 C 19,8 C 8,0 km/h (2 Bft) 100,00 %
20.07.2019 08:58 19,8 C 22,8 C 61 % 1016,1 hPa 0,0 l/m 8,0 km/h (2 Bft) SO 135 0 min 0,000 mm 1,4 UV-I 149 W/m 12,1 C 19,1 C 11,3 km/h (2 Bft) 95,65 %
20.07.2019 08:57 19,8 C 23,9 C 61 % 1016,2 hPa 0,0 l/m 4,8 km/h (1 Bft) SO 135 1 min 0,000 mm 1,5 UV-I 171 W/m 12,1 C 19,8 C 6,4 km/h (2 Bft) 100,00 %
20.07.2019 08:56 19,9 C 24,4 C 61 % 1016,2 hPa 0,0 l/m 6,4 km/h (2 Bft) SO 135 1 min 0,000 mm 1,5 UV-I 171 W/m 12,2 C 19,9 C 8,0 km/h (2 Bft) 100,00 %
20.07.2019 08:55 20,0 C 26,1 C 60 % 1016,1 hPa 0,0 l/m 6,4 km/h (2 Bft) SO 135 1 min 0,000 mm 1,7 UV-I 211 W/m 12,0 C 20,0 C 11,3 km/h (2 Bft) 95,65 %
20.07.2019 08:54 20,1 C 26,7 C 61 % 1016,1 hPa 0,0 l/m 6,4 km/h (2 Bft) SO 135 1 min 0,000 mm 1,8 UV-I 352 W/m 12,3 C 20,1 C 11,3 km/h (2 Bft) 100,00 %
20.07.2019 08:53 20,1 C 26,7 C 61 % 1016,2 hPa 0,0 l/m 6,4 km/h (2 Bft) O-SO 112 1 min 0,000 mm 1,8 UV-I 359 W/m 12,3 C 20,1 C 11,3 km/h (2 Bft) 100,00 %
20.07.2019 08:52 20,1 C 26,1 C 61 % 1016,1 hPa 0,0 l/m 3,2 km/h (1 Bft) S-SO 157 1 min 0,000 mm 1,8 UV-I 373 W/m 12,3 C 20,1 C 4,8 km/h (1 Bft) 100,00 %
20.07.2019 08:51 20,1 C 26,1 C 60 % 1016,1 hPa 0,0 l/m 4,8 km/h (1 Bft) S-SO 157 1 min 0,000 mm 1,8 UV-I 360 W/m 12,1 C 20,1 C 8,0 km/h (2 Bft) 100,00 %
20.07.2019 08:50 20,2 C 26,1 C 60 % 1016,1 hPa 0,0 l/m 6,4 km/h (2 Bft) SO 135 1 min 0,000 mm 1,8 UV-I 371 W/m 12,2 C 20,2 C 11,3 km/h (2 Bft) 100,00 %
20.07.2019 08:49 20,2 C 26,7 C 61 % 1016,1 hPa 0,0 l/m 4,8 km/h (1 Bft) O-SO 112 1 min 0,000 mm 1,8 UV-I 357 W/m 12,4 C 20,2 C 8,0 km/h (2 Bft) 100,00 %
20.07.2019 08:48 20,2 C 26,7 C 61 % 1016,1 hPa 0,0 l/m 3,2 km/h (1 Bft) O-SO 112 1 min 0,000 mm 1,7 UV-I 339 W/m 12,4 C 20,2 C 6,4 km/h (2 Bft) 95,65 %
20.07.2019 08:47 20,1 C 26,1 C 61 % 1016,2 hPa 0,0 l/m 3,2 km/h (1 Bft) O-SO 112 1 min 0,000 mm 1,7 UV-I 327 W/m 12,3 C 20,1 C 4,8 km/h (1 Bft) 100,00 %
20.07.2019 08:46 20,1 C 25,6 C 61 % 1016,2 hPa 0,0 l/m 3,2 km/h (1 Bft) O-SO 112 1 min 0,000 mm 1,7 UV-I 330 W/m 12,3 C 20,1 C 3,2 km/h (1 Bft) 100,00 %
20.07.2019 08:45 20,1 C 25,0 C 60 % 1016,0 hPa 0,0 l/m 1,6 km/h (1 Bft) O-SO 112 1 min 0,000 mm 1,7 UV-I 336 W/m 12,1 C 20,1 C 3,2 km/h (1 Bft) 95,65 %
20.07.2019 08:44 20,1 C 24,4 C 61 % 1016,1 hPa 0,0 l/m 3,2 km/h (1 Bft) S-SO 157 1 min 0,000 mm 1,7 UV-I 338 W/m 12,3 C 20,1 C 6,4 km/h (2 Bft) 100,00 %
20.07.2019 08:43 20,1 C 24,4 C 62 % 1016,2 hPa 0,0 l/m 4,8 km/h (1 Bft) O-SO 112 1 min 0,000 mm 1,7 UV-I 341 W/m 12,6 C 20,1 C 9,7 km/h (2 Bft) 95,65 %
20.07.2019 08:42 20,0 C 23,3 C 61 % 1016,0 hPa 0,0 l/m 1,6 km/h (1 Bft) O-SO 112 1 min 0,000 mm 1,7 UV-I 339 W/m 12,2 C 20,0 C 3,2 km/h (1 Bft) 100,00 %
20.07.2019 08:41 19,9 C 22,2 C 61 % 1016,1 hPa 0,0 l/m 3,2 km/h (1 Bft) O-SO 112 1 min 0,000 mm 1,7 UV-I 334 W/m 12,2 C 19,9 C 4,8 km/h (1 Bft) 95,65 %
20.07.2019 08:40 19,9 C 21,1 C 62 % 1016,1 hPa 0,0 l/m 3,2 km/h (1 Bft) O-SO 112 1 min 0,000 mm 1,7 UV-I 336 W/m 12,4 C 19,9 C 4,8 km/h (1 Bft) 95,65 %
20.07.2019 08:39 19,8 C 20,6 C 62 % 1016,1 hPa 0,0 l/m 3,2 km/h (1 Bft) O-SO 112 1 min 0,000 mm 1,6 UV-I 295 W/m 12,3 C 19,8 C 4,8 km/h (1 Bft) 95,65 %
20.07.2019 08:38 19,7 C 20,6 C 62 % 1016,1 hPa 0,0 l/m 3,2 km/h (1 Bft) O-SO 112 1 min 0,000 mm 1,6 UV-I 302 W/m 12,2 C 19,7 C 4,8 km/h (1 Bft) 100,00 %
20.07.2019 08:37 19,7 C 20,0 C 62 % 1016,2 hPa 0,0 l/m 1,6 km/h (1 Bft) O-SO 112 1 min 0,000 mm 1,6 UV-I 306 W/m 12,2 C 19,7 C 3,2 km/h (1 Bft) 100,00 %
20.07.2019 08:36 19,6 C 20,0 C 61 % 1016,2 hPa 0,0 l/m 3,2 km/h (1 Bft) O-SO 112 1 min 0,000 mm 1,5 UV-I 294 W/m 11,9 C 19,6 C 4,8 km/h (1 Bft) 95,65 %
20.07.2019 08:35 19,7 C 20,0 C 61 % 1016,1 hPa 0,0 l/m 4,8 km/h (1 Bft) O-SO 112 1 min 0,000 mm 1,5 UV-I 287 W/m 12,0 C 19,7 C 8,0 km/h (2 Bft) 100,00 %
20.07.2019 08:34 19,7 C 20,0 C 60 % 1016,1 hPa 0,0 l/m 4,8 km/h (1 Bft) O-SO 112 1 min 0,000 mm 1,5 UV-I 288 W/m 11,7 C 19,7 C 8,0 km/h (2 Bft) 100,00 %
20.07.2019 08:33 19,7 C 20,0 C 61 % 1016,1 hPa 0,0 l/m 4,8 km/h (1 Bft) O-SO 112 1 min 0,000 mm 1,5 UV-I 269 W/m 12,0 C 19,7 C 8,0 km/h (2 Bft) 100,00 %
20.07.2019 08:32 19,7 C 20,0 C 61 % 1016,1 hPa 0,0 l/m 3,2 km/h (1 Bft) O-SO 112 1 min 0,000 mm 1,4 UV-I 258 W/m 12,0 C 19,7 C 6,4 km/h (2 Bft) 100,00 %
20.07.2019 08:31 19,7 C 20,0 C 60 % 1016,0 hPa 0,0 l/m 4,8 km/h (1 Bft) O-SO 112 1 min 0,000 mm 1,4 UV-I 241 W/m 11,7 C 19,7 C 6,4 km/h (2 Bft) 95,65 %
20.07.2019 08:30 19,7 C 20,0 C 62 % 1016,1 hPa 0,0 l/m 4,8 km/h (1 Bft) O-SO 112 1 min 0,000 mm 1,4 UV-I 269 W/m 12,2 C 19,7 C 8,0 km/h (2 Bft) 100,00 %
20.07.2019 08:29 19,7 C 20,0 C 61 % 1016,0 hPa 0,0 l/m 3,2 km/h (1 Bft) O 90 1 min 0,000 mm 1,4 UV-I 276 W/m 12,0 C 19,7 C 4,8 km/h (1 Bft) 100,00 %
20.07.2019 08:28 19,6 C 20,0 C 61 % 1016,1 hPa 0,0 l/m 3,2 km/h (1 Bft) O 90 1 min 0,000 mm 1,4 UV-I 260 W/m 11,9 C 19,6 C 4,8 km/h (1 Bft) 100,00 %
20.07.2019 08:27 19,6 C 19,4 C 60 % 1016,1 hPa 0,0 l/m 3,2 km/h (1 Bft) O 90 1 min 0,000 mm 1,4 UV-I 283 W/m 11,6 C 19,6 C 4,8 km/h (1 Bft) 100,00 %
20.07.2019 08:26 19,6 C 19,4 C 61 % 1016,0 hPa 0,0 l/m 4,8 km/h (1 Bft) O 90 1 min 0,000 mm 1,4 UV-I 251 W/m 11,9 C 19,6 C 6,4 km/h (2 Bft) 100,00 %
20.07.2019 08:25 19,5 C 19,4 C 62 % 1016,0 hPa 0,0 l/m 3,2 km/h (1 Bft) O 90 1 min 0,000 mm 1,3 UV-I 250 W/m 12,0 C 19,5 C 4,8 km/h (1 Bft) 100,00 %
20.07.2019 08:24 19,4 C 19,4 C 62 % 1016,0 hPa 0,0 l/m 1,6 km/h (1 Bft) SO 135 1 min 0,000 mm 1,2 UV-I 220 W/m 11,9 C 19,4 C 4,8 km/h (1 Bft) 100,00 %
20.07.2019 08:23 19,3 C 19,4 C 62 % 1016,0 hPa 0,0 l/m 3,2 km/h (1 Bft) SO 135 1 min 0,000 mm 1,3 UV-I 257 W/m 11,8 C 19,3 C 6,4 km/h (2 Bft) 100,00 %
20.07.2019 08:22 19,3 C 19,4 C 62 % 1016,0 hPa 0,0 l/m 4,8 km/h (1 Bft) SO 135 1 min 0,000 mm 1,2 UV-I 223 W/m 11,8 C 19,3 C 6,4 km/h (2 Bft) 95,65 %
20.07.2019 08:21 19,3 C 19,4 C 61 % 1016,0 hPa 0,0 l/m 4,8 km/h (1 Bft) O-SO 112 1 min 0,000 mm 1,2 UV-I 218 W/m 11,6 C 19,3 C 6,4 km/h (2 Bft) 100,00 %
20.07.2019 08:20 19,4 C 19,4 C 62 % 1016,0 hPa 0,0 l/m 3,2 km/h (1 Bft) O-SO 112 1 min 0,000 mm 1,2 UV-I 234 W/m 11,9 C 19,4 C 6,4 km/h (2 Bft) 100,00 %
20.07.2019 08:19 19,4 C 19,4 C 62 % 1016,0 hPa 0,0 l/m 3,2 km/h (1 Bft) O-SO 112 1 min 0,000 mm 1,2 UV-I 244 W/m 11,9 C 19,4 C 4,8 km/h (1 Bft) 100,00 %
20.07.2019 08:18 19,3 C 19,4 C 61 % 1016,0 hPa 0,0 l/m 3,2 km/h (1 Bft) O-SO 112 1 min 0,000 mm 1,2 UV-I 237 W/m 11,6 C 19,3 C 4,8 km/h (1 Bft) 100,00 %
20.07.2019 08:17 19,3 C 19,4 C 62 % 1016,0 hPa 0,0 l/m 3,2 km/h (1 Bft) O-SO 112 1 min 0,000 mm 1,1 UV-I 236 W/m 11,8 C 19,3 C 6,4 km/h (2 Bft) 100,00 %
20.07.2019 08:16 19,4 C 19,4 C 62 % 1016,0 hPa 0,0 l/m 4,8 km/h (1 Bft) O-SO 112 1 min 0,000 mm 1,1 UV-I 223 W/m 11,9 C 19,4 C 6,4 km/h (2 Bft) 95,65 %
20.07.2019 08:15 19,3 C 18,9 C 61 % 1016,0 hPa 0,0 l/m 1,6 km/h (1 Bft) O 90 1 min 0,000 mm 1,1 UV-I 223 W/m 11,6 C 19,3 C 3,2 km/h (1 Bft) 95,65 %
20.07.2019 08:14 19,3 C 18,9 C 62 % 1016,0 hPa 0,0 l/m 1,6 km/h (1 Bft) O 90 1 min 0,000 mm 1,0 UV-I 206 W/m 11,8 C 19,3 C 4,8 km/h (1 Bft) 95,65 %
20.07.2019 08:13 19,3 C 18,9 C 62 % 1016,0 hPa 0,0 l/m 0,0 km/h (0 Bft) O 90 1 min 0,000 mm 1,0 UV-I 174 W/m 11,8 C 19,3 C 1,6 km/h (1 Bft) 100,00 %
20.07.2019 08:12 19,3 C 18,9 C 62 % 1016,1 hPa 0,0 l/m 1,6 km/h (1 Bft) O 90 1 min 0,000 mm 1,0 UV-I 171 W/m 11,8 C 19,3 C 3,2 km/h (1 Bft) 95,65 %
20.07.2019 08:11 19,3 C 18,9 C 62 % 1016,1 hPa 0,0 l/m 1,6 km/h (1 Bft) O 90 1 min 0,000 mm 1,0 UV-I 190 W/m 11,8 C 19,3 C 3,2 km/h (1 Bft) 100,00 %
20.07.2019 08:10 19,3 C 18,9 C 62 % 1016,0 hPa 0,0 l/m 1,6 km/h (1 Bft) O 90 1 min 0,000 mm 0,9 UV-I 162 W/m 11,8 C 19,3 C 3,2 km/h (1 Bft) 100,00 %
20.07.2019 08:09 19,4 C 18,9 C 62 % 1016,1 hPa 0,0 l/m 1,6 km/h (1 Bft) O 90 1 min 0,000 mm 0,9 UV-I 174 W/m 11,9 C 19,4 C 3,2 km/h (1 Bft) 100,00 %
20.07.2019 08:08 19,3 C 18,9 C 61 % 1016,1 hPa 0,0 l/m 1,6 km/h (1 Bft) O 90 0 min 0,000 mm 0,9 UV-I 149 W/m 11,6 C 19,3 C 3,2 km/h (1 Bft) 100,00 %
20.07.2019 08:07 19,3 C 18,9 C 61 % 1016,1 hPa 0,0 l/m 3,2 km/h (1 Bft) O 90 0 min 0,000 mm 0,9 UV-I 146 W/m 11,6 C 19,3 C 4,8 km/h (1 Bft) 100,00 %
20.07.2019 08:06 19,3 C 18,9 C 61 % 1016,1 hPa 0,0 l/m 1,6 km/h (1 Bft) O 90 0 min 0,000 mm 0,9 UV-I 151 W/m 11,6 C 19,3 C 3,2 km/h (1 Bft) 100,00 %
20.07.2019 08:05 19,3 C 18,9 C 61 % 1016,1 hPa 0,0 l/m 1,6 km/h (1 Bft) O 90 1 min 0,000 mm 0,9 UV-I 179 W/m 11,6 C 19,3 C 3,2 km/h (1 Bft) 100,00 %
20.07.2019 08:04 19,2 C 18,9 C 61 % 1016,1 hPa 0,0 l/m 3,2 km/h (1 Bft) O 90 1 min 0,000 mm 0,9 UV-I 197 W/m 11,5 C 19,2 C 11,3 km/h (2 Bft) 100,00 %
20.07.2019 08:03 19,2 C 18,9 C 61 % 1016,1 hPa 0,0 l/m 4,8 km/h (1 Bft) O 90 1 min 0,000 mm 0,9 UV-I 223 W/m 11,5 C 19,2 C 11,3 km/h (2 Bft) 100,00 %
20.07.2019 08:02 19,2 C 18,9 C 61 % 1016,0 hPa 0,0 l/m 6,4 km/h (2 Bft) SO 135 1 min 0,000 mm 0,9 UV-I 229 W/m 11,5 C 19,2 C 11,3 km/h (2 Bft) 91,30 %
20.07.2019 08:01 19,2 C 18,9 C 61 % 1016,0 hPa 0,0 l/m 1,6 km/h (1 Bft) O 90 1 min 0,000 mm 0,9 UV-I 262 W/m 11,5 C 19,2 C 3,2 km/h (1 Bft) 100,00 %
20.07.2019 08:00 19,1 C 18,9 C 62 % 1016,0 hPa 0,0 l/m 1,6 km/h (1 Bft) O 90 1 min 0,102 mm 0,9 UV-I 272 W/m 11,6 C 19,1 C 3,2 km/h (1 Bft) 100,00 %
20.07.2019 07:59 19,1 C 18,9 C 61 % 1016,1 hPa 0,0 l/m 1,6 km/h (1 Bft) O 90 1 min 0,000 mm 0,9 UV-I 258 W/m 11,4 C 19,1 C 3,2 km/h (1 Bft) 100,00 %
20.07.2019 07:58 19,0 C 18,9 C 62 % 1016,0 hPa 0,0 l/m 3,2 km/h (1 Bft) O-NO 67 1 min 0,000 mm 0,9 UV-I 287 W/m 11,6 C 19,0 C 4,8 km/h (1 Bft) 100,00 %
20.07.2019 07:57 19,0 C 18,9 C 62 % 1016,0 hPa 0,0 l/m 3,2 km/h (1 Bft) O-NO 67 1 min 0,000 mm 0,9 UV-I 290 W/m 11,6 C 19,0 C 3,2 km/h (1 Bft) 95,65 %
20.07.2019 07:56 18,9 C 18,9 C 62 % 1016,0 hPa 0,0 l/m 1,6 km/h (1 Bft) O-NO 67 1 min 0,000 mm 0,9 UV-I 290 W/m 11,5 C 18,9 C 3,2 km/h (1 Bft) 100,00 %
20.07.2019 07:55 18,9 C 18,9 C 62 % 1016,0 hPa 0,0 l/m 4,8 km/h (1 Bft) O-NO 67 1 min 0,000 mm 0,8 UV-I 278 W/m 11,5 C 18,9 C 4,8 km/h (1 Bft) 100,00 %
20.07.2019 07:54 18,9 C 18,9 C 62 % 1016,0 hPa 0,0 l/m 1,6 km/h (1 Bft) O-NO 67 1 min 0,000 mm 0,8 UV-I 279 W/m 11,5 C 18,9 C 3,2 km/h (1 Bft) 100,00 %
20.07.2019 07:53 18,8 C 18,9 C 63 % 1016,0 hPa 0,0 l/m 1,6 km/h (1 Bft) O-NO 67 1 min 0,000 mm 0,8 UV-I 279 W/m 11,6 C 18,8 C 3,2 km/h (1 Bft) 95,65 %
20.07.2019 07:52 18,8 C 18,9 C 62 % 1015,9 hPa 0,0 l/m 1,6 km/h (1 Bft) O-NO 67 1 min 0,000 mm 0,8 UV-I 269 W/m 11,4 C 18,8 C 4,8 km/h (1 Bft) 100,00 %
20.07.2019 07:51 18,8 C 18,9 C 62 % 1015,8 hPa 0,0 l/m 1,6 km/h (1 Bft) O-NO 67 1 min 0,000 mm 0,8 UV-I 250 W/m 11,4 C 18,8 C 1,6 km/h (1 Bft) 100,00 %
20.07.2019 07:50 18,8 C 18,9 C 63 % 1015,9 hPa 0,0 l/m 1,6 km/h (1 Bft) O-NO 67 1 min 0,000 mm 0,7 UV-I 216 W/m 11,6 C 18,8 C 3,2 km/h (1 Bft) 100,00 %
20.07.2019 07:49 18,7 C 18,9 C 62 % 1015,9 hPa 0,0 l/m 1,6 km/h (1 Bft) O-NO 67 1 min 0,000 mm 0,7 UV-I 186 W/m 11,3 C 18,7 C 1,6 km/h (1 Bft) 100,00 %
20.07.2019 07:48 18,7 C 18,9 C 62 % 1015,9 hPa 0,0 l/m 1,6 km/h (1 Bft) O-NO 67 0 min 0,000 mm 0,7 UV-I 148 W/m 11,3 C 18,7 C 3,2 km/h (1 Bft) 100,00 %
20.07.2019 07:47 18,7 C 18,3 C 63 % 1015,9 hPa 0,0 l/m 1,6 km/h (1 Bft) O-NO 67 0 min 0,000 mm 0,7 UV-I 148 W/m 11,5 C 18,7 C 3,2 km/h (1 Bft) 100,00 %
20.07.2019 07:46 18,7 C 18,3 C 63 % 1015,9 hPa 0,0 l/m 1,6 km/h (1 Bft) O-NO 67 0 min 0,000 mm 0,6 UV-I 135 W/m 11,5 C 18,7 C 3,2 km/h (1 Bft) 100,00 %
20.07.2019 07:45 18,7 C 18,3 C 62 % 1015,9 hPa 0,0 l/m 1,6 km/h (1 Bft) O-NO 67 0 min 0,000 mm 0,6 UV-I 127 W/m 11,3 C 18,7 C 3,2 km/h (1 Bft) 100,00 %
20.07.2019 07:44 18,6 C 18,3 C 62 % 1016,0 hPa 0,0 l/m 1,6 km/h (1 Bft) O-NO 67 0 min 0,000 mm 0,6 UV-I 118 W/m 11,2 C 18,6 C 4,8 km/h (1 Bft) 100,00 %
20.07.2019 07:43 18,6 C 18,3 C 63 % 1015,9 hPa 0,0 l/m 1,6 km/h (1 Bft) O-NO 67 0 min 0,000 mm 0,6 UV-I 132 W/m 11,4 C 18,6 C 3,2 km/h (1 Bft) 100,00 %
20.07.2019 07:42 18,6 C 18,3 C 63 % 1015,9 hPa 0,0 l/m 1,6 km/h (1 Bft) O-NO 67 0 min 0,000 mm 0,6 UV-I 134 W/m 11,4 C 18,6 C 4,8 km/h (1 Bft) 100,00 %
20.07.2019 07:41 18,6 C 18,3 C 63 % 1015,9 hPa 0,0 l/m 1,6 km/h (1 Bft) O-NO 67 0 min 0,000 mm 0,6 UV-I 134 W/m 11,4 C 18,6 C 3,2 km/h (1 Bft) 100,00 %
20.07.2019 07:40 18,6 C 18,3 C 63 % 1015,9 hPa 0,0 l/m 0,0 km/h (0 Bft) O-NO 67 0 min 0,000 mm 0,6 UV-I 135 W/m 11,4 C 18,6 C 1,6 km/h (1 Bft) 95,65 %
20.07.2019 07:39 18,5 C 18,3 C 63 % 1015,9 hPa 0,0 l/m 0,0 km/h (0 Bft) O-NO 67 0 min 0,000 mm 0,6 UV-I 130 W/m 11,3 C 18,5 C 1,6 km/h (1 Bft) 95,65 %
20.07.2019 07:38 18,5 C 18,3 C 63 % 1015,9 hPa 0,0 l/m 3,2 km/h (1 Bft) O-NO 67 0 min 0,000 mm 0,5 UV-I 105 W/m 11,3 C 18,5 C 3,2 km/h (1 Bft) 100,00 %
20.07.2019 07:37 18,4 C 18,3 C 63 % 1015,9 hPa 0,0 l/m 1,6 km/h (1 Bft) O-NO 67 0 min 0,000 mm 0,5 UV-I 123 W/m 11,2 C 18,4 C 3,2 km/h (1 Bft) 100,00 %
20.07.2019 07:36 18,4 C 18,3 C 63 % 1015,8 hPa 0,0 l/m 1,6 km/h (1 Bft) O-NO 67 0 min 0,000 mm 0,5 UV-I 132 W/m 11,2 C 18,4 C 1,6 km/h (1 Bft) 100,00 %
20.07.2019 07:35 18,4 C 18,3 C 63 % 1015,8 hPa 0,0 l/m 1,6 km/h (1 Bft) O-NO 67 0 min 0,000 mm 0,5 UV-I 132 W/m 11,2 C 18,4 C 3,2 km/h (1 Bft) 95,65 %
20.07.2019 07:34 18,4 C 18,3 C 63 % 1015,9 hPa 0,0 l/m 1,6 km/h (1 Bft) O-NO 67 0 min 0,000 mm 0,5 UV-I 132 W/m 11,2 C 18,4 C 1,6 km/h (1 Bft) 100,00 %
20.07.2019 07:33 18,4 C 18,3 C 63 % 1015,8 hPa 0,0 l/m 0,0 km/h (0 Bft) O-NO 67 0 min 0,000 mm 0,5 UV-I 121 W/m 11,2 C 18,4 C 1,6 km/h (1 Bft) 95,65 %
20.07.2019 07:32 18,3 C 18,3 C 63 % 1015,9 hPa 0,0 l/m 1,6 km/h (1 Bft) O-NO 67 0 min 0,000 mm 0,5 UV-I 121 W/m 11,1 C 18,3 C 4,8 km/h (1 Bft) 100,00 %
20.07.2019 07:31 18,3 C 18,3 C 63 % 1015,9 hPa 0,0 l/m 0,0 km/h (0 Bft) O-NO 67 0 min 0,000 mm 0,5 UV-I 98 W/m 11,1 C 18,3 C 1,6 km/h (1 Bft) 91,30 %
20.07.2019 07:30 18,4 C 18,3 C 63 % 1015,8 hPa 0,0 l/m 1,6 km/h (1 Bft) O-NO 67 0 min 0,000 mm 0,0 UV-I 91 W/m 11,2 C 18,4 C 1,6 km/h (1 Bft) 100,00 %
20.07.2019 07:29 18,3 C 18,3 C 63 % 1015,8 hPa 0,0 l/m 0,0 km/h (0 Bft) O-NO 67 0 min 0,000 mm 0,0 UV-I 95 W/m 11,1 C 18,3 C 3,2 km/h (1 Bft) 100,00 %
20.07.2019 07:28 18,3 C 18,3 C 63 % 1015,8 hPa 0,0 l/m 0,0 km/h (0 Bft) O-NO 67 0 min 0,000 mm 0,0 UV-I 100 W/m 11,1 C 18,3 C 1,6 km/h (1 Bft) 95,65 %
20.07.2019 07:27 18,3 C 18,3 C 63 % 1015,9 hPa 0,0 l/m 0,0 km/h (0 Bft) N 0 0 min 0,000 mm 0,0 UV-I 102 W/m 11,1 C 18,3 C 0,0 km/h (0 Bft) 100,00 %
20.07.2019 07:26 18,3 C 18,3 C 63 % 1015,8 hPa 0,0 l/m 0,0 km/h (0 Bft) O-NO 67 0 min 0,000 mm 0,0 UV-I 102 W/m 11,1 C 18,3 C 1,6 km/h (1 Bft) 100,00 %
20.07.2019 07:25 18,3 C 18,3 C 63 % 1015,9 hPa 0,0 l/m 0,0 km/h (0 Bft) O-NO 67 0 min 0,000 mm 0,0 UV-I 98 W/m 11,1 C 18,3 C 1,6 km/h (1 Bft) 100,00 %
20.07.2019 07:24 18,3 C 18,3 C 63 % 1015,9 hPa 0,0 l/m 0,0 km/h (0 Bft) N 0 0 min 0,000 mm 0,0 UV-I 93 W/m 11,1 C 18,3 C 0,0 km/h (0 Bft) 100,00 %
20.07.2019 07:23 18,3 C 18,3 C 63 % 1015,9 hPa 0,0 l/m 0,0 km/h (0 Bft) N 0 0 min 0,000 mm 0,0 UV-I 91 W/m 11,1 C 18,3 C 0,0 km/h (0 Bft) 100,00 %
20.07.2019 07:22 18,3 C 18,3 C 63 % 1015,8 hPa 0,0 l/m 0,0 km/h (0 Bft) N 0 0 min 0,000 mm 0,0 UV-I 93 W/m 11,1 C 18,3 C 0,0 km/h (0 Bft) 100,00 %
20.07.2019 07:21 18,3 C 18,3 C 63 % 1015,8 hPa 0,0 l/m 0,0 km/h (0 Bft) N 0 0 min 0,000 mm 0,0 UV-I 91 W/m 11,1 C 18,3 C 0,0 km/h (0 Bft) 100,00 %
20.07.2019 07:20 18,4 C 18,3 C 63 % 1015,8 hPa 0,0 l/m 0,0 km/h (0 Bft) N 0 0 min 0,000 mm 0,0 UV-I 93 W/m 11,2 C 18,4 C 0,0 km/h (0 Bft) 100,00 %
20.07.2019 07:19 18,4 C 17,8 C 63 % 1015,8 hPa 0,0 l/m 0,0 km/h (0 Bft) N 0 0 min 0,000 mm 0,0 UV-I 97 W/m 11,2 C 18,4 C 0,0 km/h (0 Bft) 95,65 %
20.07.2019 07:18 18,4 C 17,8 C 63 % 1015,8 hPa 0,0 l/m 1,6 km/h (1 Bft) O-NO 67 0 min 0,000 mm 0,0 UV-I 90 W/m 11,2 C 18,4 C 3,2 km/h (1 Bft) 100,00 %
20.07.2019 07:17 18,4 C 17,8 C 63 % 1015,8 hPa 0,0 l/m 1,6 km/h (1 Bft) O-NO 67 0 min 0,000 mm 0,0 UV-I 86 W/m 11,2 C 18,4 C 3,2 km/h (1 Bft) 100,00 %
20.07.2019 07:16 18,4 C 17,8 C 63 % 1015,8 hPa 0,0 l/m 3,2 km/h (1 Bft) O-NO 67 0 min 0,000 mm 0,0 UV-I 86 W/m 11,2 C 18,4 C 3,2 km/h (1 Bft) 95,65 %
20.07.2019 07:15 18,4 C 17,8 C 63 % 1015,9 hPa 0,0 l/m 3,2 km/h (1 Bft) O-NO 67 0 min 0,000 mm 0,0 UV-I 84 W/m 11,2 C 18,4 C 4,8 km/h (1 Bft) 100,00 %
20.07.2019 07:14 18,4 C 17,8 C 62 % 1015,8 hPa 0,0 l/m 3,2 km/h (1 Bft) O-NO 67 0 min 0,000 mm 0,0 UV-I 97 W/m 11,0 C 18,4 C 4,8 km/h (1 Bft) 95,65 %
20.07.2019 07:13 18,4 C 18,3 C 63 % 1015,8 hPa 0,0 l/m 1,6 km/h (1 Bft) O-NO 67 0 min 0,000 mm 0,0 UV-I 104 W/m 11,2 C 18,4 C 3,2 km/h (1 Bft) 100,00 %
20.07.2019 07:12 18,3 C 18,3 C 63 % 1015,8 hPa 0,0 l/m 3,2 km/h (1 Bft) O-NO 67 0 min 0,000 mm 0,0 UV-I 104 W/m 11,1 C 18,3 C 4,8 km/h (1 Bft) 95,65 %
20.07.2019 07:11 18,3 C 18,3 C 63 % 1015,8 hPa 0,0 l/m 3,2 km/h (1 Bft) O-NO 67 0 min 0,000 mm 0,0 UV-I 100 W/m 11,1 C 18,3 C 4,8 km/h (1 Bft) 100,00 %
20.07.2019 07:10 18,3 C 18,3 C 62 % 1015,7 hPa 0,0 l/m 4,8 km/h (1 Bft) O-NO 67 0 min 0,000 mm 0,0 UV-I 95 W/m 10,9 C 18,3 C 6,4 km/h (2 Bft) 100,00 %
20.07.2019 07:09 18,3 C 18,3 C 63 % 1015,7 hPa 0,0 l/m 4,8 km/h (1 Bft) O-NO 67 0 min 0,000 mm 0,0 UV-I 95 W/m 11,1 C 18,3 C 6,4 km/h (2 Bft) 100,00 %
20.07.2019 07:08 18,2 C 18,3 C 63 % 1015,7 hPa 0,0 l/m 1,6 km/h (1 Bft) O 90 0 min 0,000 mm 0,0 UV-I 100 W/m 11,0 C 18,2 C 3,2 km/h (1 Bft) 100,00 %
20.07.2019 07:07 18,2 C 18,3 C 63 % 1015,6 hPa 0,0 l/m 3,2 km/h (1 Bft) O 90 0 min 0,000 mm 0,0 UV-I 104 W/m 11,0 C 18,2 C 4,8 km/h (1 Bft) 95,65 %
20.07.2019 07:06 18,2 C 18,9 C 63 % 1015,7 hPa 0,0 l/m 3,2 km/h (1 Bft) O 90 0 min 0,000 mm 0,0 UV-I 104 W/m 11,0 C 18,2 C 4,8 km/h (1 Bft) 100,00 %
20.07.2019 07:05 18,2 C 18,9 C 63 % 1015,8 hPa 0,0 l/m 0,0 km/h (0 Bft) O 90 0 min 0,000 mm 0,0 UV-I 98 W/m 11,0 C 18,2 C 1,6 km/h (1 Bft) 100,00 %
20.07.2019 07:04 18,2 C 18,9 C 64 % 1015,7 hPa 0,0 l/m 1,6 km/h (1 Bft) O 90 0 min 0,000 mm 0,0 UV-I 100 W/m 11,3 C 18,2 C 1,6 km/h (1 Bft) 100,00 %
20.07.2019 07:03 18,2 C 18,9 C 64 % 1015,7 hPa 0,0 l/m 1,6 km/h (1 Bft) O 90 0 min 0,000 mm 0,0 UV-I 97 W/m 11,3 C 18,2 C 1,6 km/h (1 Bft) 100,00 %
20.07.2019 07:02 18,1 C 18,9 C 64 % 1015,6 hPa 0,0 l/m 0,0 km/h (0 Bft) O 90 0 min 0,000 mm 0,0 UV-I 100 W/m 11,2 C 18,1 C 1,6 km/h (1 Bft) 95,65 %
20.07.2019 07:01 18,1 C 19,4 C 64 % 1015,7 hPa 0,0 l/m 1,6 km/h (1 Bft) O 90 0 min 0,000 mm 0,0 UV-I 102 W/m 11,2 C 18,1 C 3,2 km/h (1 Bft) 95,65 %
20.07.2019 07:00 18,1 C 19,4 C 64 % 1015,7 hPa 0,0 l/m 0,0 km/h (0 Bft) O 90 0 min 0,051 mm 0,0 UV-I 98 W/m 11,2 C 18,1 C 3,2 km/h (1 Bft) 100,00 %
20.07.2019 06:59 18,1 C 19,4 C 64 % 1015,7 hPa 0,0 l/m 0,0 km/h (0 Bft) N 0 0 min 0,000 mm 0,0 UV-I 100 W/m 11,2 C 18,1 C 0,0 km/h (0 Bft) 95,65 %
20.07.2019 06:58 18,1 C 20,0 C 64 % 1015,7 hPa 0,0 l/m 0,0 km/h (0 Bft) N 0 0 min 0,000 mm 0,0 UV-I 98 W/m 11,2 C 18,1 C 0,0 km/h (0 Bft) 100,00 %
20.07.2019 06:57 17,9 C 20,0 C 64 % 1015,7 hPa 0,0 l/m 0,0 km/h (0 Bft) N 0 0 min 0,000 mm 0,0 UV-I 97 W/m 11,0 C 17,9 C 0,0 km/h (0 Bft) 95,65 %
20.07.2019 06:56 17,9 C 20,0 C 64 % 1015,7 hPa 0,0 l/m 0,0 km/h (0 Bft) N 0 0 min 0,000 mm 0,0 UV-I 91 W/m 11,0 C 17,9 C 0,0 km/h (0 Bft) 100,00 %
20.07.2019 06:55 17,9 C 20,0 C 64 % 1015,7 hPa 0,0 l/m 0,0 km/h (0 Bft) N 0 0 min 0,000 mm 0,0 UV-I 91 W/m 11,0 C 17,9 C 0,0 km/h (0 Bft) 95,65 %
20.07.2019 06:54 17,9 C 20,0 C 64 % 1015,7 hPa 0,0 l/m 0,0 km/h (0 Bft) N 0 0 min 0,000 mm 0,0 UV-I 86 W/m 11,0 C 17,9 C 0,0 km/h (0 Bft) 100,00 %
20.07.2019 06:53 17,8 C 20,0 C 64 % 1015,7 hPa 0,0 l/m 0,0 km/h (0 Bft) O 90 0 min 0,000 mm 0,0 UV-I 81 W/m 10,9 C 17,8 C 1,6 km/h (1 Bft) 100,00 %
20.07.2019 06:52 17,8 C 20,0 C 64 % 1015,7 hPa 0,0 l/m 0,0 km/h (0 Bft) O 90 0 min 0,000 mm 0,0 UV-I 76 W/m 10,9 C 17,8 C 1,6 km/h (1 Bft) 100,00 %
20.07.2019 06:51 17,8 C 20,0 C 64 % 1015,7 hPa 0,0 l/m 0,0 km/h (0 Bft) N 0 0 min 0,000 mm 0,0 UV-I 74 W/m 10,9 C 17,8 C 0,0 km/h (0 Bft) 100,00 %
20.07.2019 06:50 17,7 C 19,4 C 64 % 1015,6 hPa 0,0 l/m 0,0 km/h (0 Bft) O 90 0 min 0,000 mm 0,0 UV-I 69 W/m 10,8 C 17,7 C 1,6 km/h (1 Bft) 95,65 %
20.07.2019 06:49 17,6 C 19,4 C 64 % 1015,6 hPa 0,0 l/m 1,6 km/h (1 Bft) O 90 0 min 0,000 mm 0,0 UV-I 67 W/m 10,7 C 17,6 C 3,2 km/h (1 Bft) 100,00 %
20.07.2019 06:48 17,5 C 19,4 C 65 % 1015,7 hPa 0,0 l/m 1,6 km/h (1 Bft) O 90 0 min 0,000 mm 0,0 UV-I 67 W/m 10,8 C 17,5 C 3,2 km/h (1 Bft) 95,65 %
20.07.2019 06:47 17,4 C 19,4 C 65 % 1015,7 hPa 0,0 l/m 1,6 km/h (1 Bft) O 90 0 min 0,000 mm 0,0 UV-I 67 W/m 10,8 C 17,4 C 3,2 km/h (1 Bft) 91,30 %
20.07.2019 06:46 17,3 C 20,0 C 66 % 1015,6 hPa 0,0 l/m 1,6 km/h (1 Bft) O 90 0 min 0,000 mm 0,0 UV-I 65 W/m 10,9 C 17,3 C 3,2 km/h (1 Bft) 100,00 %
20.07.2019 06:45 17,2 C 20,0 C 66 % 1015,6 hPa 0,0 l/m 0,0 km/h (0 Bft) O 90 0 min 0,000 mm 0,0 UV-I 65 W/m 10,8 C 17,2 C 1,6 km/h (1 Bft) 95,65 %
20.07.2019 06:44 17,1 C 20,0 C 66 % 1015,6 hPa 0,0 l/m 0,0 km/h (0 Bft) O 90 0 min 0,000 mm 0,0 UV-I 65 W/m 10,7 C 17,1 C 1,6 km/h (1 Bft) 100,00 %
20.07.2019 06:43 17,1 C 20,0 C 66 % 1015,7 hPa 0,0 l/m 0,0 km/h (0 Bft) N 0 0 min 0,000 mm 0,0 UV-I 65 W/m 10,7 C 17,1 C 0,0 km/h (0 Bft) 95,65 %
20.07.2019 06:42 17,1 C 20,0 C 66 % 1015,7 hPa 0,0 l/m 0,0 km/h (0 Bft) N 0 0 min 0,000 mm 0,0 UV-I 67 W/m 10,7 C 17,1 C 0,0 km/h (0 Bft) 100,00 %
20.07.2019 06:41 17,1 C 20,0 C 66 % 1015,6 hPa 0,0 l/m 0,0 km/h (0 Bft) N 0 0 min 0,000 mm 0,0 UV-I 67 W/m 10,7 C 17,1 C 0,0 km/h (0 Bft) 95,65 %
20.07.2019 06:40 17,1 C 19,4 C 66 % 1015,7 hPa 0,0 l/m 0,0 km/h (0 Bft) N 0 0 min 0,000 mm 0,0 UV-I 67 W/m 10,7 C 17,1 C 0,0 km/h (0 Bft) 100,00 %
20.07.2019 06:39 17,1 C 18,9 C 66 % 1015,6 hPa 0,0 l/m 0,0 km/h (0 Bft) N 0 0 min 0,000 mm 0,0 UV-I 67 W/m 10,7 C 17,1 C 0,0 km/h (0 Bft) 100,00 %
20.07.2019 06:38 17,1 C 18,9 C 66 % 1015,7 hPa 0,0 l/m 0,0 km/h (0 Bft) N 0 0 min 0,000 mm 0,0 UV-I 67 W/m 10,7 C 17,1 C 0,0 km/h (0 Bft) 91,30 %
20.07.2019 06:37 17,1 C 18,3 C 66 % 1015,7 hPa 0,0 l/m 0,0 km/h (0 Bft) N 0 0 min 0,000 mm 0,0 UV-I 65 W/m 10,7 C 17,1 C 0,0 km/h (0 Bft) 100,00 %
20.07.2019 06:36 17,1 C 18,3 C 66 % 1015,7 hPa 0,0 l/m 0,0 km/h (0 Bft) O 90 0 min 0,000 mm 0,0 UV-I 65 W/m 10,7 C 17,1 C 1,6 km/h (1 Bft) 95,65 %
20.07.2019 06:35 17,1 C 18,9 C 65 % 1015,6 hPa 0,0 l/m 1,6 km/h (1 Bft) O 90 0 min 0,000 mm 0,0 UV-I 63 W/m 10,5 C 17,1 C 4,8 km/h (1 Bft) 100,00 %
20.07.2019 06:34 17,1 C 18,9 C 66 % 1015,6 hPa 0,0 l/m 1,6 km/h (1 Bft) O 90 0 min 0,000 mm 0,0 UV-I 63 W/m 10,7 C 17,1 C 3,2 km/h (1 Bft) 100,00 %
20.07.2019 06:33 17,1 C 19,4 C 66 % 1015,7 hPa 0,0 l/m 1,6 km/h (1 Bft) O 90 0 min 0,000 mm 0,0 UV-I 63 W/m 10,7 C 17,1 C 3,2 km/h (1 Bft) 91,30 %
20.07.2019 06:32 17,0 C 19,4 C 66 % 1015,6 hPa 0,0 l/m 0,0 km/h (0 Bft) O 90 0 min 0,000 mm 0,0 UV-I 63 W/m 10,6 C 17,0 C 1,6 km/h (1 Bft) 95,65 %
20.07.2019 06:31 16,9 C 18,9 C 66 % 1015,7 hPa 0,0 l/m 0,0 km/h (0 Bft) N 0 0 min 0,000 mm 0,0 UV-I 62 W/m 10,5 C 16,9 C 0,0 km/h (0 Bft) 91,30 %
20.07.2019 06:30 16,9 C 18,9 C 66 % 1015,7 hPa 0,0 l/m 1,6 km/h (1 Bft) O 90 0 min 0,000 mm 0,0 UV-I 62 W/m 10,5 C 16,9 C 3,2 km/h (1 Bft) 100,00 %
20.07.2019 06:29 16,9 C 18,9 C 66 % 1015,7 hPa 0,0 l/m 1,6 km/h (1 Bft) O 90 0 min 0,000 mm 0,0 UV-I 62 W/m 10,5 C 16,9 C 3,2 km/h (1 Bft) 95,65 %
20.07.2019 06:28 16,8 C 18,3 C 66 % 1015,7 hPa 0,0 l/m 1,6 km/h (1 Bft) O 90 0 min 0,000 mm 0,0 UV-I 62 W/m 10,4 C 16,8 C 1,6 km/h (1 Bft) 95,65 %
20.07.2019 06:27 16,8 C 18,3 C 66 % 1015,7 hPa 0,0 l/m 1,6 km/h (1 Bft) O 90 0 min 0,000 mm 0,0 UV-I 63 W/m 10,4 C 16,8 C 3,2 km/h (1 Bft) 100,00 %
20.07.2019 06:26 16,8 C 18,3 C 66 % 1015,7 hPa 0,0 l/m 1,6 km/h (1 Bft) O 90 0 min 0,000 mm 0,0 UV-I 65 W/m 10,4 C 16,8 C 3,2 km/h (1 Bft) 100,00 %
20.07.2019 06:25 16,8 C 17,8 C 66 % 1015,7 hPa 0,0 l/m 0,0 km/h (0 Bft) O 90 0 min 0,000 mm 0,0 UV-I 65 W/m 10,4 C 16,8 C 1,6 km/h (1 Bft) 100,00 %
20.07.2019 06:24 16,7 C 17,8 C 66 % 1015,7 hPa 0,0 l/m 1,6 km/h (1 Bft) O 90 0 min 0,000 mm 0,0 UV-I 65 W/m 10,3 C 16,7 C 1,6 km/h (1 Bft) 100,00 %
20.07.2019 06:23 16,7 C 17,2 C 66 % 1015,6 hPa 0,0 l/m 1,6 km/h (1 Bft) O 90 0 min 0,000 mm 0,0 UV-I 63 W/m 10,3 C 16,7 C 3,2 km/h (1 Bft) 95,65 %
20.07.2019 06:22 16,7 C 17,2 C 66 % 1015,7 hPa 0,0 l/m 1,6 km/h (1 Bft) O 90 0 min 0,000 mm 0,0 UV-I 63 W/m 10,3 C 16,7 C 3,2 km/h (1 Bft) 100,00 %
20.07.2019 06:21 16,6 C 17,2 C 66 % 1015,6 hPa 0,0 l/m 1,6 km/h (1 Bft) O 90 0 min 0,000 mm 0,0 UV-I 62 W/m 10,2 C 16,6 C 3,2 km/h (1 Bft) 100,00 %
20.07.2019 06:20 16,6 C 17,2 C 66 % 1015,7 hPa 0,0 l/m 3,2 km/h (1 Bft) O 90 0 min 0,000 mm 0,0 UV-I 62 W/m 10,2 C 16,6 C 3,2 km/h (1 Bft) 100,00 %
20.07.2019 06:19 16,6 C 16,7 C 66 % 1015,7 hPa 0,0 l/m 1,6 km/h (1 Bft) O 90 0 min 0,000 mm 0,0 UV-I 60 W/m 10,2 C 16,6 C 3,2 km/h (1 Bft) 95,65 %
20.07.2019 06:18 16,6 C 16,7 C 66 % 1015,6 hPa 0,0 l/m 1,6 km/h (1 Bft) O 90 0 min 0,000 mm 0,0 UV-I 58 W/m 10,2 C 16,6 C 3,2 km/h (1 Bft) 100,00 %
20.07.2019 06:17 16,6 C 16,7 C 66 % 1015,7 hPa 0,0 l/m 1,6 km/h (1 Bft) O 90 0 min 0,000 mm 0,0 UV-I 56 W/m 10,2 C 16,6 C 3,2 km/h (1 Bft) 100,00 %
20.07.2019 06:16 16,6 C 16,1 C 66 % 1015,7 hPa 0,0 l/m 1,6 km/h (1 Bft) O 90 0 min 0,000 mm 0,0 UV-I 53 W/m 10,2 C 16,6 C 3,2 km/h (1 Bft) 100,00 %
20.07.2019 06:15 16,6 C 16,1 C 66 % 1015,6 hPa 0,0 l/m 1,6 km/h (1 Bft) O 90 0 min 0,000 mm 0,0 UV-I 49 W/m 10,2 C 16,6 C 3,2 km/h (1 Bft) 100,00 %
20.07.2019 06:14 16,7 C 16,1 C 66 % 1015,7 hPa 0,0 l/m 1,6 km/h (1 Bft) O 90 0 min 0,000 mm 0,0 UV-I 47 W/m 10,3 C 16,7 C 3,2 km/h (1 Bft) 100,00 %
20.07.2019 06:13 16,7 C 16,1 C 66 % 1015,7 hPa 0,0 l/m 1,6 km/h (1 Bft) O 90 0 min 0,000 mm 0,0 UV-I 46 W/m 10,3 C 16,7 C 3,2 km/h (1 Bft) 100,00 %
20.07.2019 06:12 16,7 C 16,1 C 66 % 1015,6 hPa 0,0 l/m 1,6 km/h (1 Bft) O 90 0 min 0,000 mm 0,0 UV-I 44 W/m 10,3 C 16,7 C 1,6 km/h (1 Bft) 100,00 %
20.07.2019 06:11 16,7 C 15,6 C 66 % 1015,7 hPa 0,0 l/m 1,6 km/h (1 Bft) O 90 0 min 0,000 mm 0,0 UV-I 44 W/m 10,3 C 16,7 C 3,2 km/h (1 Bft) 86,96 %
20.07.2019 06:10 16,7 C 15,6 C 66 % 1015,6 hPa 0,0 l/m 1,6 km/h (1 Bft) O 90 0 min 0,000 mm 0,0 UV-I 44 W/m 10,3 C 16,7 C 3,2 km/h (1 Bft) 100,00 %
20.07.2019 06:09 16,8 C 15,6 C 65 % 1015,6 hPa 0,0 l/m 1,6 km/h (1 Bft) O 90 0 min 0,000 mm 0,0 UV-I 40 W/m 10,2 C 16,8 C 3,2 km/h (1 Bft) 91,30 %
20.07.2019 06:08 16,8 C 15,0 C 65 % 1015,7 hPa 0,0 l/m 1,6 km/h (1 Bft) O 90 0 min 0,000 mm 0,0 UV-I 39 W/m 10,2 C 16,8 C 3,2 km/h (1 Bft) 100,00 %
20.07.2019 06:07 16,8 C 15,0 C 65 % 1015,6 hPa 0,0 l/m 1,6 km/h (1 Bft) O 90 0 min 0,000 mm 0,0 UV-I 37 W/m 10,2 C 16,8 C 3,2 km/h (1 Bft) 95,65 %
20.07.2019 06:06 16,8 C 15,0 C 65 % 1015,7 hPa 0,0 l/m 1,6 km/h (1 Bft) O 90 0 min 0,000 mm 0,0 UV-I 35 W/m 10,2 C 16,8 C 3,2 km/h (1 Bft) 100,00 %
20.07.2019 06:05 16,8 C 15,0 C 65 % 1015,7 hPa 0,0 l/m 3,2 km/h (1 Bft) O 90 0 min 0,000 mm 0,0 UV-I 35 W/m 10,2 C 16,8 C 3,2 km/h (1 Bft) 95,65 %
20.07.2019 06:04 16,9 C 15,0 C 65 % 1015,7 hPa 0,0 l/m 3,2 km/h (1 Bft) O 90 0 min 0,000 mm 0,0 UV-I 33 W/m 10,3 C 16,9 C 4,8 km/h (1 Bft) 95,65 %
20.07.2019 06:03 16,8 C 14,4 C 65 % 1015,7 hPa 0,0 l/m 1,6 km/h (1 Bft) O 90 0 min 0,000 mm 0,0 UV-I 32 W/m 10,2 C 16,8 C 3,2 km/h (1 Bft) 100,00 %
20.07.2019 06:02 16,8 C 14,4 C 65 % 1015,7 hPa 0,0 l/m 0,0 km/h (0 Bft) N 0 0 min 0,000 mm 0,0 UV-I 32 W/m 10,2 C 16,8 C 0,0 km/h (0 Bft) 95,65 %
20.07.2019 06:01 16,9 C 14,4 C 65 % 1015,7 hPa 0,0 l/m 0,0 km/h (0 Bft) N 0 0 min 0,000 mm 0,0 UV-I 30 W/m 10,3 C 16,9 C 0,0 km/h (0 Bft) 100,00 %
20.07.2019 06:00 16,8 C 14,4 C 65 % 1015,7 hPa 0,0 l/m 0,0 km/h (0 Bft) N 0 0 min 0,000 mm 0,0 UV-I 30 W/m 10,2 C 16,8 C 0,0 km/h (0 Bft) 95,65 %
20.07.2019 05:59 16,7 C 14,4 C 65 % 1015,7 hPa 0,0 l/m 0,0 km/h (0 Bft) N 0 0 min 0,000 mm 0,0 UV-I 30 W/m 10,1 C 16,7 C 0,0 km/h (0 Bft) 100,00 %
20.07.2019 05:58 16,7 C 14,4 C 66 % 1015,7 hPa 0,0 l/m 0,0 km/h (0 Bft) N 0 0 min 0,000 mm 0,0 UV-I 28 W/m 10,3 C 16,7 C 0,0 km/h (0 Bft) 95,65 %
20.07.2019 05:57 16,7 C 14,4 C 66 % 1015,7 hPa 0,0 l/m 0,0 km/h (0 Bft) N 0 0 min 0,000 mm 0,0 UV-I 26 W/m 10,3 C 16,7 C 0,0 km/h (0 Bft) 95,65 %
20.07.2019 05:56 16,6 C 14,4 C 66 % 1015,7 hPa 0,0 l/m 0,0 km/h (0 Bft) N 0 0 min 0,000 mm 0,0 UV-I 26 W/m 10,2 C 16,6 C 0,0 km/h (0 Bft) 100,00 %
20.07.2019 05:55 16,7 C 13,9 C 65 % 1015,7 hPa 0,0 l/m 0,0 km/h (0 Bft) N 0 0 min 0,000 mm 0,0 UV-I 26 W/m 10,1 C 16,7 C 0,0 km/h (0 Bft) 95,65 %
20.07.2019 05:54 16,7 C 13,9 C 65 % 1015,7 hPa 0,0 l/m 0,0 km/h (0 Bft) N 0 0 min 0,000 mm 0,0 UV-I 26 W/m 10,1 C 16,7 C 0,0 km/h (0 Bft) 100,00 %
20.07.2019 05:53 16,8 C 13,9 C 65 % 1015,7 hPa 0,0 l/m 0,0 km/h (0 Bft) N 0 0 min 0,000 mm 0,0 UV-I 25 W/m 10,2 C 16,8 C 0,0 km/h (0 Bft) 100,00 %
20.07.2019 05:52 16,8 C 13,9 C 65 % 1015,7 hPa 0,0 l/m 0,0 km/h (0 Bft) N 0 0 min 0,000 mm 0,0 UV-I 25 W/m 10,2 C 16,8 C 0,0 km/h (0 Bft) 95,65 %
20.07.2019 05:51 16,9 C 13,9 C 65 % 1015,7 hPa 0,0 l/m 0,0 km/h (0 Bft) N 0 0 min 0,000 mm 0,0 UV-I 23 W/m 10,3 C 16,9 C 0,0 km/h (0 Bft) 100,00 %
20.07.2019 05:50 16,9 C 13,9 C 65 % 1015,7 hPa 0,0 l/m 0,0 km/h (0 Bft) N 0 0 min 0,000 mm 0,0 UV-I 21 W/m 10,3 C 16,9 C 0,0 km/h (0 Bft) 100,00 %
20.07.2019 05:49 17,1 C 13,9 C 64 % 1015,7 hPa 0,0 l/m 0,0 km/h (0 Bft) N 0 0 min 0,000 mm 0,0 UV-I 21 W/m 10,2 C 17,1 C 0,0 km/h (0 Bft) 91,30 %
20.07.2019 05:48 17,1 C 13,9 C 64 % 1015,7 hPa 0,0 l/m 0,0 km/h (0 Bft) N 0 0 min 0,000 mm 0,0 UV-I 19 W/m 10,2 C 17,1 C 0,0 km/h (0 Bft) 100,00 %
20.07.2019 05:47 17,1 C 13,9 C 64 % 1015,6 hPa 0,0 l/m 0,0 km/h (0 Bft) N 0 0 min 0,000 mm 0,0 UV-I 19 W/m 10,2 C 17,1 C 0,0 km/h (0 Bft) 91,30 %
20.07.2019 05:46 17,2 C 13,3 C 64 % 1015,6 hPa 0,0 l/m 0,0 km/h (0 Bft) N 0 0 min 0,000 mm 0,0 UV-I 18 W/m 10,3 C 17,2 C 0,0 km/h (0 Bft) 91,30 %
20.07.2019 05:45 17,2 C 13,3 C 64 % 1015,7 hPa 0,0 l/m 0,0 km/h (0 Bft) N 0 0 min 0,000 mm 0,0 UV-I 18 W/m 10,3 C 17,2 C 0,0 km/h (0 Bft) 100,00 %
20.07.2019 05:44 17,1 C 13,3 C 64 % 1015,7 hPa 0,0 l/m 0,0 km/h (0 Bft) N 0 0 min 0,000 mm 0,0 UV-I 16 W/m 10,2 C 17,1 C 0,0 km/h (0 Bft) 95,65 %
20.07.2019 05:43 17,1 C 13,3 C 65 % 1015,7 hPa 0,0 l/m 0,0 km/h (0 Bft) N 0 0 min 0,000 mm 0,0 UV-I 14 W/m 10,5 C 17,1 C 0,0 km/h (0 Bft) 95,65 %
20.07.2019 05:42 16,9 C 13,3 C 65 % 1015,7 hPa 0,0 l/m 0,0 km/h (0 Bft) N 0 0 min 0,000 mm 0,0 UV-I 14 W/m 10,3 C 16,9 C 0,0 km/h (0 Bft) 95,65 %
20.07.2019 05:41 16,8 C 13,3 C 65 % 1015,7 hPa 0,0 l/m 0,0 km/h (0 Bft) N 0 0 min 0,000 mm 0,0 UV-I 14 W/m 10,2 C 16,8 C 0,0 km/h (0 Bft) 100,00 %
20.07.2019 05:40 16,8 C 13,3 C 65 % 1015,7 hPa 0,0 l/m 0,0 km/h (0 Bft) N 0 0 min 0,000 mm 0,0 UV-I 12 W/m 10,2 C 16,8 C 0,0 km/h (0 Bft) 91,30 %
20.07.2019 05:39 16,8 C 13,3 C 65 % 1015,5 hPa 0,0 l/m 0,0 km/h (0 Bft) N 0 0 min 0,000 mm 0,0 UV-I 12 W/m 10,2 C 16,8 C 0,0 km/h (0 Bft) 95,65 %
20.07.2019 05:38 16,7 C 13,3 C 65 % 1015,7 hPa 0,0 l/m 0,0 km/h (0 Bft) N 0 0 min 0,000 mm 0,0 UV-I 11 W/m 10,1 C 16,7 C 0,0 km/h (0 Bft) 100,00 %
20.07.2019 05:37 16,7 C 13,3 C 66 % 1015,6 hPa 0,0 l/m 0,0 km/h (0 Bft) N 0 0 min 0,000 mm 0,0 UV-I 9 W/m 10,3 C 16,7 C 0,0 km/h (0 Bft) 95,65 %
20.07.2019 05:36 16,6 C 13,3 C 66 % 1015,6 hPa 0,0 l/m 0,0 km/h (0 Bft) N 0 0 min 0,000 mm 0,0 UV-I 9 W/m 10,2 C 16,6 C 0,0 km/h (0 Bft) 95,65 %
20.07.2019 05:35 16,6 C 13,3 C 66 % 1015,6 hPa 0,0 l/m 0,0 km/h (0 Bft) N 0 0 min 0,000 mm 0,0 UV-I 9 W/m 10,2 C 16,6 C 0,0 km/h (0 Bft) 100,00 %
20.07.2019 05:34 16,6 C 13,3 C 66 % 1015,6 hPa 0,0 l/m 0,0 km/h (0 Bft) N 0 0 min 0,000 mm 0,0 UV-I 7 W/m 10,2 C 16,6 C 0,0 km/h (0 Bft) 100,00 %
20.07.2019 05:33 16,5 C 13,3 C 66 % 1015,6 hPa 0,0 l/m 0,0 km/h (0 Bft) N 0 0 min 0,000 mm 0,0 UV-I 7 W/m 10,1 C 16,5 C 0,0 km/h (0 Bft) 100,00 %
20.07.2019 05:32 16,5 C 13,3 C 66 % 1015,6 hPa 0,0 l/m 0,0 km/h (0 Bft) N 0 0 min 0,000 mm 0,0 UV-I 5 W/m 10,1 C 16,5 C 0,0 km/h (0 Bft) 100,00 %
20.07.2019 05:31 16,5 C 13,3 C 66 % 1015,6 hPa 0,0 l/m 0,0 km/h (0 Bft) N 0 0 min 0,000 mm 0,0 UV-I 5 W/m 10,1 C 16,5 C 0,0 km/h (0 Bft) 95,65 %
20.07.2019 05:30 16,5 C 13,3 C 66 % 1015,6 hPa 0,0 l/m 0,0 km/h (0 Bft) N 0 0 min 0,000 mm 0,0 UV-I 5 W/m 10,1 C 16,5 C 0,0 km/h (0 Bft) 100,00 %
20.07.2019 05:29 16,5 C 13,3 C 66 % 1015,6 hPa 0,0 l/m 0,0 km/h (0 Bft) N 0 0 min 0,000 mm 0,0 UV-I 0 W/m 10,1 C 16,5 C 0,0 km/h (0 Bft) 100,00 %
20.07.2019 05:28 16,5 C 13,3 C 66 % 1015,5 hPa 0,0 l/m 0,0 km/h (0 Bft) N 0 0 min 0,000 mm 0,0 UV-I 0 W/m 10,1 C 16,5 C 0,0 km/h (0 Bft) 95,65 %
20.07.2019 05:27 16,5 C 13,3 C 66 % 1015,6 hPa 0,0 l/m 0,0 km/h (0 Bft) N 0 0 min 0,000 mm 0,0 UV-I 0 W/m 10,1 C 16,5 C 0,0 km/h (0 Bft) 100,00 %
20.07.2019 05:26 16,5 C 13,3 C 66 % 1015,6 hPa 0,0 l/m 0,0 km/h (0 Bft) N 0 0 min 0,000 mm 0,0 UV-I 0 W/m 10,1 C 16,5 C 0,0 km/h (0 Bft) 91,30 %
20.07.2019 05:25 16,5 C 13,3 C 66 % 1015,6 hPa 0,0 l/m 0,0 km/h (0 Bft) N 0 0 min 0,000 mm 0,0 UV-I 0 W/m 10,1 C 16,5 C 0,0 km/h (0 Bft) 100,00 %
20.07.2019 05:24 16,5 C 13,3 C 66 % 1015,6 hPa 0,0 l/m 0,0 km/h (0 Bft) N 0 0 min 0,000 mm 0,0 UV-I 0 W/m 10,1 C 16,5 C 0,0 km/h (0 Bft) 95,65 %
20.07.2019 05:23 16,5 C 13,3 C 66 % 1015,5 hPa 0,0 l/m 0,0 km/h (0 Bft) N 0 0 min 0,000 mm 0,0 UV-I 0 W/m 10,1 C 16,5 C 0,0 km/h (0 Bft) 95,65 %
20.07.2019 05:22 16,6 C 13,3 C 66 % 1015,6 hPa 0,0 l/m 0,0 km/h (0 Bft) N 0 0 min 0,000 mm 0,0 UV-I 0 W/m 10,2 C 16,6 C 0,0 km/h (0 Bft) 100,00 %
20.07.2019 05:21 16,5 C 13,3 C 66 % 1015,5 hPa 0,0 l/m 0,0 km/h (0 Bft) N 0 0 min 0,000 mm 0,0 UV-I 0 W/m 10,1 C 16,5 C 0,0 km/h (0 Bft) 100,00 %
20.07.2019 05:20 16,6 C 13,3 C 66 % 1015,6 hPa 0,0 l/m 0,0 km/h (0 Bft) N 0 0 min 0,000 mm 0,0 UV-I 0 W/m 10,2 C 16,6 C 0,0 km/h (0 Bft) 95,65 %
20.07.2019 05:19 16,6 C 13,3 C 66 % 1015,6 hPa 0,0 l/m 0,0 km/h (0 Bft) N 0 0 min 0,000 mm 0,0 UV-I 0 W/m 10,2 C 16,6 C 0,0 km/h (0 Bft) 95,65 %
20.07.2019 05:18 16,6 C 13,3 C 66 % 1015,6 hPa 0,0 l/m 0,0 km/h (0 Bft) N 0 0 min 0,000 mm 0,0 UV-I 0 W/m 10,2 C 16,6 C 0,0 km/h (0 Bft) 100,00 %
20.07.2019 05:17 16,6 C 13,3 C 65 % 1015,5 hPa 0,0 l/m 0,0 km/h (0 Bft) N 0 0 min 0,000 mm 0,0 UV-I 0 W/m 10,0 C 16,6 C 0,0 km/h (0 Bft) 100,00 %
20.07.2019 05:16 16,7 C 13,3 C 65 % 1015,5 hPa 0,0 l/m 0,0 km/h (0 Bft) N 0 0 min 0,000 mm 0,0 UV-I 0 W/m 10,1 C 16,7 C 0,0 km/h (0 Bft) 95,65 %
20.07.2019 05:15 16,6 C 13,3 C 66 % 1015,5 hPa 0,0 l/m 0,0 km/h (0 Bft) N 0 0 min 0,000 mm 0,0 UV-I 0 W/m 10,2 C 16,6 C 0,0 km/h (0 Bft) 100,00 %
20.07.2019 05:14 16,6 C 13,3 C 66 % 1015,5 hPa 0,0 l/m 0,0 km/h (0 Bft) N 0 0 min 0,000 mm 0,0 UV-I 0 W/m 10,2 C 16,6 C 0,0 km/h (0 Bft) 100,00 %
20.07.2019 05:13 16,6 C 13,9 C 66 % 1015,5 hPa 0,0 l/m 0,0 km/h (0 Bft) N 0 0 min 0,000 mm 0,0 UV-I 0 W/m 10,2 C 16,6 C 0,0 km/h (0 Bft) 91,30 %
20.07.2019 05:12 16,5 C 13,3 C 66 % 1015,5 hPa 0,0 l/m 0,0 km/h (0 Bft) N 0 0 min 0,000 mm 0,0 UV-I 0 W/m 10,1 C 16,5 C 0,0 km/h (0 Bft) 100,00 %
20.07.2019 05:11 16,4 C 13,9 C 66 % 1015,5 hPa 0,0 l/m 0,0 km/h (0 Bft) N 0 0 min 0,000 mm 0,0 UV-I 0 W/m 10,0 C 16,4 C 0,0 km/h (0 Bft) 100,00 %
20.07.2019 05:10 16,4 C 13,9 C 66 % 1015,5 hPa 0,0 l/m 0,0 km/h (0 Bft) N 0 0 min 0,000 mm 0,0 UV-I 0 W/m 10,0 C 16,4 C 0,0 km/h (0 Bft) 100,00 %
20.07.2019 05:09 16,4 C 13,9 C 66 % 1015,6 hPa 0,0 l/m 0,0 km/h (0 Bft) N 0 0 min 0,000 mm 0,0 UV-I 0 W/m 10,0 C 16,4 C 0,0 km/h (0 Bft) 100,00 %
20.07.2019 05:08 16,4 C 13,9 C 66 % 1015,5 hPa 0,0 l/m 0,0 km/h (0 Bft) N 0 0 min 0,000 mm 0,0 UV-I 0 W/m 10,0 C 16,4 C 0,0 km/h (0 Bft) 100,00 %
20.07.2019 05:07 16,4 C 13,9 C 66 % 1015,5 hPa 0,0 l/m 0,0 km/h (0 Bft) N 0 0 min 0,000 mm 0,0 UV-I 0 W/m 10,0 C 16,4 C 0,0 km/h (0 Bft) 95,65 %
20.07.2019 05:06 16,4 C 13,9 C 66 % 1015,5 hPa 0,0 l/m 0,0 km/h (0 Bft) N 0 0 min 0,000 mm 0,0 UV-I 0 W/m 10,0 C 16,4 C 0,0 km/h (0 Bft) 91,30 %
20.07.2019 05:05 16,3 C 13,9 C 66 % 1015,6 hPa 0,0 l/m 0,0 km/h (0 Bft) N 0 0 min 0,000 mm 0,0 UV-I 0 W/m 9,9 C 16,3 C 0,0 km/h (0 Bft) 100,00 %
20.07.2019 05:04 16,4 C 13,9 C 66 % 1015,5 hPa 0,0 l/m 0,0 km/h (0 Bft) N 0 0 min 0,000 mm 0,0 UV-I 0 W/m 10,0 C 16,4 C 0,0 km/h (0 Bft) 95,65 %
20.07.2019 05:03 16,4 C 13,9 C 66 % 1015,5 hPa 0,0 l/m 0,0 km/h (0 Bft) O 90 0 min 0,000 mm 0,0 UV-I 0 W/m 10,0 C 16,4 C 1,6 km/h (1 Bft) 100,00 %
20.07.2019 05:02 16,6 C 13,9 C 66 % 1015,5 hPa 0,0 l/m 1,6 km/h (1 Bft) O 90 0 min 0,000 mm 0,0 UV-I 0 W/m 10,2 C 16,6 C 3,2 km/h (1 Bft) 100,00 %
20.07.2019 05:01 16,7 C 13,9 C 65 % 1015,5 hPa 0,0 l/m 1,6 km/h (1 Bft) O 90 0 min 0,000 mm 0,0 UV-I 0 W/m 10,1 C 16,7 C 3,2 km/h (1 Bft) 95,65 %
20.07.2019 05:00 16,8 C 13,9 C 65 % 1015,5 hPa 0,0 l/m 1,6 km/h (1 Bft) O 90 0 min 0,025 mm 0,0 UV-I 0 W/m 10,2 C 16,8 C 3,2 km/h (1 Bft) 100,00 %
20.07.2019 04:59 17,0 C 13,9 C 64 % 1015,6 hPa 0,0 l/m 1,6 km/h (1 Bft) O 90 0 min 0,000 mm 0,0 UV-I 0 W/m 10,1 C 17,0 C 1,6 km/h (1 Bft) 95,65 %
20.07.2019 04:58 17,3 C 13,9 C 64 % 1015,6 hPa 0,0 l/m 1,6 km/h (1 Bft) O 90 0 min 0,000 mm 0,0 UV-I 0 W/m 10,4 C 17,3 C 3,2 km/h (1 Bft) 100,00 %
20.07.2019 04:57 17,4 C 13,9 C 63 % 1015,6 hPa 0,0 l/m 3,2 km/h (1 Bft) O 90 0 min 0,000 mm 0,0 UV-I 0 W/m 10,3 C 17,4 C 3,2 km/h (1 Bft) 95,65 %
20.07.2019 04:56 17,6 C 13,9 C 63 % 1015,6 hPa 0,0 l/m 1,6 km/h (1 Bft) O 90 0 min 0,000 mm 0,0 UV-I 0 W/m 10,5 C 17,6 C 3,2 km/h (1 Bft) 100,00 %
20.07.2019 04:55 17,8 C 13,9 C 62 % 1015,6 hPa 0,0 l/m 1,6 km/h (1 Bft) O 90 0 min 0,000 mm 0,0 UV-I 0 W/m 10,4 C 17,8 C 3,2 km/h (1 Bft) 100,00 %
20.07.2019 04:54 17,8 C 13,9 C 62 % 1015,5 hPa 0,0 l/m 0,0 km/h (0 Bft) O 90 0 min 0,000 mm 0,0 UV-I 0 W/m 10,4 C 17,8 C 1,6 km/h (1 Bft) 95,65 %
20.07.2019 04:53 17,9 C 14,4 C 62 % 1015,5 hPa 0,0 l/m 1,6 km/h (1 Bft) O 90 0 min 0,000 mm 0,0 UV-I 0 W/m 10,5 C 17,9 C 3,2 km/h (1 Bft) 100,00 %
20.07.2019 04:52 17,9 C 14,4 C 62 % 1015,5 hPa 0,0 l/m 1,6 km/h (1 Bft) O 90 0 min 0,000 mm 0,0 UV-I 0 W/m 10,5 C 17,9 C 3,2 km/h (1 Bft) 95,65 %
20.07.2019 04:51 17,9 C 14,4 C 62 % 1015,5 hPa 0,0 l/m 0,0 km/h (0 Bft) N 0 0 min 0,000 mm 0,0 UV-I 0 W/m 10,5 C 17,9 C 0,0 km/h (0 Bft) 100,00 %
20.07.2019 04:50 17,9 C 14,4 C 62 % 1015,5 hPa 0,0 l/m 0,0 km/h (0 Bft) O 90 0 min 0,000 mm 0,0 UV-I 0 W/m 10,5 C 17,9 C 1,6 km/h (1 Bft) 100,00 %
20.07.2019 04:49 17,9 C 14,4 C 62 % 1015,4 hPa 0,0 l/m 1,6 km/h (1 Bft) O 90 0 min 0,000 mm 0,0 UV-I 0 W/m 10,5 C 17,9 C 4,8 km/h (1 Bft) 100,00 %
20.07.2019 04:48 17,8 C 14,4 C 62 % 1015,6 hPa 0,0 l/m 3,2 km/h (1 Bft) O 90 0 min 0,000 mm 0,0 UV-I 0 W/m 10,4 C 17,8 C 4,8 km/h (1 Bft) 100,00 %
20.07.2019 04:47 17,8 C 14,4 C 62 % 1015,5 hPa 0,0 l/m 1,6 km/h (1 Bft) O 90 0 min 0,000 mm 0,0 UV-I 0 W/m 10,4 C 17,8 C 3,2 km/h (1 Bft) 100,00 %
20.07.2019 04:46 17,8 C 14,4 C 62 % 1015,4 hPa 0,0 l/m 0,0 km/h (0 Bft) O 90 0 min 0,000 mm 0,0 UV-I 0 W/m 10,4 C 17,8 C 3,2 km/h (1 Bft) 100,00 %
20.07.2019 04:45 17,7 C 14,4 C 62 % 1015,5 hPa 0,0 l/m 0,0 km/h (0 Bft) N 0 0 min 0,000 mm 0,0 UV-I 0 W/m 10,3 C 17,7 C 0,0 km/h (0 Bft) 100,00 %
20.07.2019 04:44 17,7 C 14,4 C 62 % 1015,5 hPa 0,0 l/m 0,0 km/h (0 Bft) N 0 0 min 0,000 mm 0,0 UV-I 0 W/m 10,3 C 17,7 C 0,0 km/h (0 Bft) 100,00 %
20.07.2019 04:43 17,8 C 14,4 C 62 % 1015,6 hPa 0,0 l/m 0,0 km/h (0 Bft) N 0 0 min 0,000 mm 0,0 UV-I 0 W/m 10,4 C 17,8 C 0,0 km/h (0 Bft) 100,00 %
20.07.2019 04:42 17,7 C 14,4 C 62 % 1015,4 hPa 0,0 l/m 0,0 km/h (0 Bft) N 0 0 min 0,000 mm 0,0 UV-I 0 W/m 10,3 C 17,7 C 0,0 km/h (0 Bft) 91,30 %
20.07.2019 04:41 17,8 C 14,4 C 62 % 1015,5 hPa 0,0 l/m 0,0 km/h (0 Bft) N 0 0 min 0,000 mm 0,0 UV-I 0 W/m 10,4 C 17,8 C 0,0 km/h (0 Bft) 100,00 %
20.07.2019 04:40 17,7 C 14,4 C 62 % 1015,4 hPa 0,0 l/m 0,0 km/h (0 Bft) N 0 0 min 0,000 mm 0,0 UV-I 0 W/m 10,3 C 17,7 C 0,0 km/h (0 Bft) 100,00 %
20.07.2019 04:39 17,6 C 14,4 C 63 % 1015,5 hPa 0,0 l/m 0,0 km/h (0 Bft) N 0 0 min 0,000 mm 0,0 UV-I 0 W/m 10,5 C 17,6 C 0,0 km/h (0 Bft) 100,00 %
20.07.2019 04:38 17,4 C 14,4 C 63 % 1015,4 hPa 0,0 l/m 0,0 km/h (0 Bft) N 0 0 min 0,000 mm 0,0 UV-I 0 W/m 10,3 C 17,4 C 0,0 km/h (0 Bft) 95,65 %
20.07.2019 04:37 17,3 C 14,4 C 64 % 1015,5 hPa 0,0 l/m 0,0 km/h (0 Bft) N 0 0 min 0,000 mm 0,0 UV-I 0 W/m 10,4 C 17,3 C 0,0 km/h (0 Bft) 100,00 %
20.07.2019 04:36 17,2 C 14,4 C 64 % 1015,4 hPa 0,0 l/m 0,0 km/h (0 Bft) N 0 0 min 0,000 mm 0,0 UV-I 0 W/m 10,3 C 17,2 C 0,0 km/h (0 Bft) 100,00 %
20.07.2019 04:35 17,2 C 14,4 C 64 % 1015,4 hPa 0,0 l/m 0,0 km/h (0 Bft) N 0 0 min 0,000 mm 0,0 UV-I 0 W/m 10,3 C 17,2 C 0,0 km/h (0 Bft) 95,65 %
20.07.2019 04:34 17,2 C 14,4 C 64 % 1015,4 hPa 0,0 l/m 0,0 km/h (0 Bft) N 0 0 min 0,000 mm 0,0 UV-I 0 W/m 10,3 C 17,2 C 0,0 km/h (0 Bft) 100,00 %
20.07.2019 04:33 17,3 C 14,4 C 64 % 1015,4 hPa 0,0 l/m 0,0 km/h (0 Bft) N 0 0 min 0,000 mm 0,0 UV-I 0 W/m 10,4 C 17,3 C 0,0 km/h (0 Bft) 100,00 %
20.07.2019 04:32 17,4 C 14,4 C 63 % 1015,4 hPa 0,0 l/m 0,0 km/h (0 Bft) N 0 0 min 0,000 mm 0,0 UV-I 0 W/m 10,3 C 17,4 C 0,0 km/h (0 Bft) 100,00 %
20.07.2019 04:31 17,6 C 14,4 C 63 % 1015,5 hPa 0,0 l/m 0,0 km/h (0 Bft) N 0 0 min 0,000 mm 0,0 UV-I 0 W/m 10,5 C 17,6 C 0,0 km/h (0 Bft) 95,65 %
20.07.2019 04:30 17,8 C 14,4 C 62 % 1015,4 hPa 0,0 l/m 0,0 km/h (0 Bft) N 0 0 min 0,000 mm 0,0 UV-I 0 W/m 10,4 C 17,8 C 0,0 km/h (0 Bft) 100,00 %
20.07.2019 04:29 17,9 C 14,4 C 62 % 1015,4 hPa 0,0 l/m 0,0 km/h (0 Bft) N 0 0 min 0,000 mm 0,0 UV-I 0 W/m 10,5 C 17,9 C 0,0 km/h (0 Bft) 100,00 %
20.07.2019 04:28 18,1 C 14,4 C 61 % 1015,6 hPa 0,0 l/m 0,0 km/h (0 Bft) N 0 0 min 0,000 mm 0,0 UV-I 0 W/m 10,5 C 18,1 C 0,0 km/h (0 Bft) 100,00 %
20.07.2019 04:27 18,3 C 14,4 C 60 % 1015,5 hPa 0,0 l/m 0,0 km/h (0 Bft) N 0 0 min 0,000 mm 0,0 UV-I 0 W/m 10,4 C 18,3 C 0,0 km/h (0 Bft) 100,00 %
20.07.2019 04:26 18,4 C 14,4 C 60 % 1015,5 hPa 0,0 l/m 0,0 km/h (0 Bft) N 0 0 min 0,000 mm 0,0 UV-I 0 W/m 10,5 C 18,4 C 0,0 km/h (0 Bft) 95,65 %
20.07.2019 04:25 18,4 C 14,4 C 60 % 1015,4 hPa 0,0 l/m 0,0 km/h (0 Bft) N 0 0 min 0,000 mm 0,0 UV-I 0 W/m 10,5 C 18,4 C 0,0 km/h (0 Bft) 95,65 %
20.07.2019 04:24 18,6 C 14,4 C 60 % 1015,5 hPa 0,0 l/m 0,0 km/h (0 Bft) N 0 0 min 0,000 mm 0,0 UV-I 0 W/m 10,7 C 18,6 C 0,0 km/h (0 Bft) 100,00 %
20.07.2019 04:23 18,6 C 14,4 C 60 % 1015,4 hPa 0,0 l/m 0,0 km/h (0 Bft) N 0 0 min 0,000 mm 0,0 UV-I 0 W/m 10,7 C 18,6 C 0,0 km/h (0 Bft) 100,00 %
20.07.2019 04:22 18,6 C 14,4 C 60 % 1015,4 hPa 0,0 l/m 0,0 km/h (0 Bft) N 0 0 min 0,000 mm 0,0 UV-I 0 W/m 10,7 C 18,6 C 0,0 km/h (0 Bft) 100,00 %
20.07.2019 04:21 18,6 C 14,4 C 60 % 1015,4 hPa 0,0 l/m 0,0 km/h (0 Bft) N 0 0 min 0,000 mm 0,0 UV-I 0 W/m 10,7 C 18,6 C 0,0 km/h (0 Bft) 100,00 %
20.07.2019 04:20 18,6 C 14,4 C 60 % 1015,5 hPa 0,0 l/m 0,0 km/h (0 Bft) N 0 0 min 0,000 mm 0,0 UV-I 0 W/m 10,7 C 18,6 C 0,0 km/h (0 Bft) 100,00 %
20.07.2019 04:19 18,6 C 13,9 C 60 % 1015,5 hPa 0,0 l/m 0,0 km/h (0 Bft) N 0 0 min 0,000 mm 0,0 UV-I 0 W/m 10,7 C 18,6 C 0,0 km/h (0 Bft) 95,65 %
20.07.2019 04:18 18,6 C 13,9 C 60 % 1015,4 hPa 0,0 l/m 0,0 km/h (0 Bft) N 0 0 min 0,000 mm 0,0 UV-I 0 W/m 10,7 C 18,6 C 0,0 km/h (0 Bft) 100,00 %
20.07.2019 04:17 18,5 C 13,9 C 60 % 1015,5 hPa 0,0 l/m 0,0 km/h (0 Bft) N 0 0 min 0,000 mm 0,0 UV-I 0 W/m 10,6 C 18,5 C 0,0 km/h (0 Bft) 100,00 %
20.07.2019 04:16 18,4 C 13,9 C 60 % 1015,5 hPa 0,0 l/m 0,0 km/h (0 Bft) N 0 0 min 0,000 mm 0,0 UV-I 0 W/m 10,5 C 18,4 C 0,0 km/h (0 Bft) 100,00 %
20.07.2019 04:15 18,4 C 13,9 C 60 % 1015,5 hPa 0,0 l/m 0,0 km/h (0 Bft) N 0 0 min 0,000 mm 0,0 UV-I 0 W/m 10,5 C 18,4 C 0,0 km/h (0 Bft) 100,00 %
20.07.2019 04:14 18,3 C 13,9 C 61 % 1015,4 hPa 0,0 l/m 0,0 km/h (0 Bft) N 0 0 min 0,000 mm 0,0 UV-I 0 W/m 10,6 C 18,3 C 0,0 km/h (0 Bft) 100,00 %
20.07.2019 04:13 18,2 C 13,9 C 61 % 1015,5 hPa 0,0 l/m 0,0 km/h (0 Bft) N 0 0 min 0,000 mm 0,0 UV-I 0 W/m 10,6 C 18,2 C 0,0 km/h (0 Bft) 100,00 %
20.07.2019 04:12 18,1 C 13,9 C 61 % 1015,4 hPa 0,0 l/m 0,0 km/h (0 Bft) N 0 0 min 0,000 mm 0,0 UV-I 0 W/m 10,5 C 18,1 C 0,0 km/h (0 Bft) 100,00 %
20.07.2019 04:11 18,0 C 13,9 C 61 % 1015,5 hPa 0,0 l/m 0,0 km/h (0 Bft) N 0 0 min 0,000 mm 0,0 UV-I 0 W/m 10,4 C 18,0 C 0,0 km/h (0 Bft) 100,00 %
20.07.2019 04:10 17,9 C 13,9 C 61 % 1015,4 hPa 0,0 l/m 0,0 km/h (0 Bft) N 0 0 min 0,000 mm 0,0 UV-I 0 W/m 10,3 C 17,9 C 0,0 km/h (0 Bft) 95,65 %
20.07.2019 04:09 17,9 C 13,9 C 62 % 1015,5 hPa 0,0 l/m 0,0 km/h (0 Bft) N 0 0 min 0,000 mm 0,0 UV-I 0 W/m 10,5 C 17,9 C 0,0 km/h (0 Bft) 100,00 %
20.07.2019 04:08 17,8 C 13,9 C 62 % 1015,4 hPa 0,0 l/m 0,0 km/h (0 Bft) N 0 0 min 0,000 mm 0,0 UV-I 0 W/m 10,4 C 17,8 C 0,0 km/h (0 Bft) 100,00 %
20.07.2019 04:07 17,7 C 13,9 C 62 % 1015,5 hPa 0,0 l/m 0,0 km/h (0 Bft) N 0 0 min 0,000 mm 0,0 UV-I 0 W/m 10,3 C 17,7 C 0,0 km/h (0 Bft) 100,00 %
20.07.2019 04:06 17,7 C 13,9 C 62 % 1015,5 hPa 0,0 l/m 0,0 km/h (0 Bft) N 0 0 min 0,000 mm 0,0 UV-I 0 W/m 10,3 C 17,7 C 0,0 km/h (0 Bft) 100,00 %
20.07.2019 04:05 17,6 C 13,9 C 62 % 1015,5 hPa 0,0 l/m 0,0 km/h (0 Bft) N 0 0 min 0,000 mm 0,0 UV-I 0 W/m 10,2 C 17,6 C 0,0 km/h (0 Bft) 100,00 %
20.07.2019 04:04 17,5 C 13,9 C 63 % 1015,5 hPa 0,0 l/m 0,0 km/h (0 Bft) N 0 0 min 0,000 mm 0,0 UV-I 0 W/m 10,4 C 17,5 C 0,0 km/h (0 Bft) 100,00 %
20.07.2019 04:03 17,4 C 14,4 C 63 % 1015,4 hPa 0,0 l/m 0,0 km/h (0 Bft) N 0 0 min 0,000 mm 0,0 UV-I 0 W/m 10,3 C 17,4 C 0,0 km/h (0 Bft) 100,00 %
20.07.2019 04:02 17,3 C 14,4 C 64 % 1015,5 hPa 0,0 l/m 0,0 km/h (0 Bft) N 0 0 min 0,000 mm 0,0 UV-I 0 W/m 10,4 C 17,3 C 0,0 km/h (0 Bft) 100,00 %
20.07.2019 04:01 17,2 C 14,4 C 64 % 1015,5 hPa 0,0 l/m 0,0 km/h (0 Bft) N 0 0 min 0,000 mm 0,0 UV-I 0 W/m 10,3 C 17,2 C 0,0 km/h (0 Bft) 95,65 %
20.07.2019 04:00 17,2 C 14,4 C 64 % 1015,5 hPa 0,0 l/m 0,0 km/h (0 Bft) N 0 0 min 0,051 mm 0,0 UV-I 0 W/m 10,3 C 17,2 C 0,0 km/h (0 Bft) 100,00 %
20.07.2019 03:59 17,1 C 14,4 C 65 % 1015,6 hPa 0,0 l/m 0,0 km/h (0 Bft) N 0 0 min 0,000 mm 0,0 UV-I 0 W/m 10,5 C 17,1 C 0,0 km/h (0 Bft) 95,65 %
20.07.2019 03:58 17,1 C 14,4 C 65 % 1015,5 hPa 0,0 l/m 0,0 km/h (0 Bft) N 0 0 min 0,000 mm 0,0 UV-I 0 W/m 10,5 C 17,1 C 0,0 km/h (0 Bft) 100,00 %
20.07.2019 03:57 17,1 C 14,4 C 65 % 1015,5 hPa 0,0 l/m 0,0 km/h (0 Bft) N 0 0 min 0,000 mm 0,0 UV-I 0 W/m 10,5 C 17,1 C 0,0 km/h (0 Bft) 95,65 %
20.07.2019 03:56 17,1 C 14,4 C 65 % 1015,5 hPa 0,0 l/m 0,0 km/h (0 Bft) N 0 0 min 0,000 mm 0,0 UV-I 0 W/m 10,5 C 17,1 C 0,0 km/h (0 Bft) 100,00 %
20.07.2019 03:55 17,2 C 14,4 C 65 % 1015,5 hPa 0,0 l/m 0,0 km/h (0 Bft) N 0 0 min 0,000 mm 0,0 UV-I 0 W/m 10,6 C 17,2 C 0,0 km/h (0 Bft) 100,00 %
20.07.2019 03:54 17,3 C 14,4 C 64 % 1015,6 hPa 0,0 l/m 0,0 km/h (0 Bft) N 0 0 min 0,000 mm 0,0 UV-I 0 W/m 10,4 C 17,3 C 0,0 km/h (0 Bft) 95,65 %
20.07.2019 03:53 17,4 C 14,4 C 64 % 1015,5 hPa 0,0 l/m 0,0 km/h (0 Bft) N 0 0 min 0,000 mm 0,0 UV-I 0 W/m 10,5 C 17,4 C 0,0 km/h (0 Bft) 100,00 %
20.07.2019 03:52 17,5 C 14,4 C 64 % 1015,5 hPa 0,0 l/m 0,0 km/h (0 Bft) N 0 0 min 0,000 mm 0,0 UV-I 0 W/m 10,6 C 17,5 C 0,0 km/h (0 Bft) 100,00 %
20.07.2019 03:51 17,6 C 14,4 C 63 % 1015,5 hPa 0,0 l/m 0,0 km/h (0 Bft) N 0 0 min 0,000 mm 0,0 UV-I 0 W/m 10,5 C 17,6 C 0,0 km/h (0 Bft) 100,00 %
20.07.2019 03:50 17,7 C 14,4 C 63 % 1015,5 hPa 0,0 l/m 0,0 km/h (0 Bft) N 0 0 min 0,000 mm 0,0 UV-I 0 W/m 10,6 C 17,7 C 0,0 km/h (0 Bft) 100,00 %
20.07.2019 03:49 17,7 C 14,4 C 63 % 1015,5 hPa 0,0 l/m 0,0 km/h (0 Bft) N 0 0 min 0,000 mm 0,0 UV-I 0 W/m 10,6 C 17,7 C 0,0 km/h (0 Bft) 95,65 %
20.07.2019 03:48 17,8 C 14,4 C 63 % 1015,6 hPa 0,0 l/m 0,0 km/h (0 Bft) N 0 0 min 0,000 mm 0,0 UV-I 0 W/m 10,7 C 17,8 C 0,0 km/h (0 Bft) 100,00 %
20.07.2019 03:47 17,9 C 14,4 C 63 % 1015,5 hPa 0,0 l/m 0,0 km/h (0 Bft) N 0 0 min 0,000 mm 0,0 UV-I 0 W/m 10,8 C 17,9 C 0,0 km/h (0 Bft) 95,65 %
20.07.2019 03:46 18,1 C 14,4 C 62 % 1015,5 hPa 0,0 l/m 0,0 km/h (0 Bft) N 0 0 min 0,000 mm 0,0 UV-I 0 W/m 10,7 C 18,1 C 0,0 km/h (0 Bft) 100,00 %
20.07.2019 03:45 18,2 C 14,4 C 62 % 1015,4 hPa 0,0 l/m 0,0 km/h (0 Bft) N 0 0 min 0,000 mm 0,0 UV-I 0 W/m 10,8 C 18,2 C 0,0 km/h (0 Bft) 100,00 %
20.07.2019 03:44 18,3 C 14,4 C 61 % 1015,6 hPa 0,0 l/m 0,0 km/h (0 Bft) N 0 0 min 0,000 mm 0,0 UV-I 0 W/m 10,6 C 18,3 C 0,0 km/h (0 Bft) 95,65 %
20.07.2019 03:43 18,4 C 14,4 C 61 % 1015,5 hPa 0,0 l/m 0,0 km/h (0 Bft) N 0 0 min 0,000 mm 0,0 UV-I 0 W/m 10,7 C 18,4 C 0,0 km/h (0 Bft) 100,00 %
20.07.2019 03:42 18,6 C 14,4 C 60 % 1015,5 hPa 0,0 l/m 0,0 km/h (0 Bft) N 0 0 min 0,000 mm 0,0 UV-I 0 W/m 10,7 C 18,6 C 0,0 km/h (0 Bft) 100,00 %
20.07.2019 03:41 18,7 C 14,4 C 60 % 1015,5 hPa 0,0 l/m 0,0 km/h (0 Bft) N 0 0 min 0,000 mm 0,0 UV-I 0 W/m 10,8 C 18,7 C 0,0 km/h (0 Bft) 100,00 %
20.07.2019 03:40 18,9 C 14,4 C 59 % 1015,4 hPa 0,0 l/m 0,0 km/h (0 Bft) O 90 0 min 0,000 mm 0,0 UV-I 0 W/m 10,7 C 18,9 C 1,6 km/h (1 Bft) 95,65 %
20.07.2019 03:39 19,1 C 14,4 C 59 % 1015,5 hPa 0,0 l/m 1,6 km/h (1 Bft) O 90 0 min 0,000 mm 0,0 UV-I 0 W/m 10,9 C 19,1 C 1,6 km/h (1 Bft) 100,00 %
20.07.2019 03:38 19,1 C 14,4 C 59 % 1015,5 hPa 0,0 l/m 1,6 km/h (1 Bft) O 90 0 min 0,000 mm 0,0 UV-I 0 W/m 10,9 C 19,1 C 1,6 km/h (1 Bft) 95,65 %
20.07.2019 03:37 19,2 C 14,4 C 58 % 1015,4 hPa 0,0 l/m 0,0 km/h (0 Bft) O 90 0 min 0,000 mm 0,0 UV-I 0 W/m 10,7 C 19,2 C 1,6 km/h (1 Bft) 95,65 %
20.07.2019 03:36 19,2 C 14,4 C 58 % 1015,4 hPa 0,0 l/m 0,0 km/h (0 Bft) O 90 0 min 0,000 mm 0,0 UV-I 0 W/m 10,7 C 19,2 C 1,6 km/h (1 Bft) 100,00 %
20.07.2019 03:35 19,3 C 14,4 C 58 % 1015,5 hPa 0,0 l/m 0,0 km/h (0 Bft) O 90 0 min 0,000 mm 0,0 UV-I 0 W/m 10,8 C 19,3 C 1,6 km/h (1 Bft) 100,00 %
20.07.2019 03:34 19,3 C 14,4 C 58 % 1015,5 hPa 0,0 l/m 0,0 km/h (0 Bft) N 0 0 min 0,000 mm 0,0 UV-I 0 W/m 10,8 C 19,3 C 0,0 km/h (0 Bft) 100,00 %
20.07.2019 03:33 19,3 C 14,4 C 58 % 1015,4 hPa 0,0 l/m 0,0 km/h (0 Bft) N 0 0 min 0,000 mm 0,0 UV-I 0 W/m 10,8 C 19,3 C 0,0 km/h (0 Bft) 100,00 %
20.07.2019 03:32 19,3 C 14,4 C 58 % 1015,5 hPa 0,0 l/m 0,0 km/h (0 Bft) N 0 0 min 0,000 mm 0,0 UV-I 0 W/m 10,8 C 19,3 C 0,0 km/h (0 Bft) 95,65 %
20.07.2019 03:31 19,3 C 14,4 C 58 % 1015,5 hPa 0,0 l/m 0,0 km/h (0 Bft) N 0 0 min 0,000 mm 0,0 UV-I 0 W/m 10,8 C 19,3 C 0,0 km/h (0 Bft) 100,00 %
20.07.2019 03:30 19,3 C 14,4 C 58 % 1015,4 hPa 0,0 l/m 0,0 km/h (0 Bft) N 0 0 min 0,000 mm 0,0 UV-I 0 W/m 10,8 C 19,3 C 0,0 km/h (0 Bft) 100,00 %
20.07.2019 03:29 19,4 C 14,4 C 57 % 1015,5 hPa 0,0 l/m 0,0 km/h (0 Bft) N 0 0 min 0,000 mm 0,0 UV-I 0 W/m 10,7 C 19,4 C 0,0 km/h (0 Bft) 100,00 %
20.07.2019 03:28 19,4 C 14,4 C 57 % 1015,5 hPa 0,0 l/m 0,0 km/h (0 Bft) N 0 0 min 0,000 mm 0,0 UV-I 0 W/m 10,7 C 19,4 C 0,0 km/h (0 Bft) 100,00 %
20.07.2019 03:27 19,4 C 14,4 C 57 % 1015,4 hPa 0,0 l/m 0,0 km/h (0 Bft) N 0 0 min 0,000 mm 0,0 UV-I 0 W/m 10,7 C 19,4 C 0,0 km/h (0 Bft) 100,00 %
20.07.2019 03:26 19,4 C 14,4 C 57 % 1015,5 hPa 0,0 l/m 0,0 km/h (0 Bft) O 90 0 min 0,000 mm 0,0 UV-I 0 W/m 10,7 C 19,4 C 1,6 km/h (1 Bft) 91,30 %
20.07.2019 03:25 19,5 C 14,4 C 57 % 1015,5 hPa 0,0 l/m 0,0 km/h (0 Bft) O 90 0 min 0,000 mm 0,0 UV-I 0 W/m 10,8 C 19,5 C 1,6 km/h (1 Bft) 100,00 %
20.07.2019 03:24 19,4 C 14,4 C 57 % 1015,5 hPa 0,0 l/m 1,6 km/h (1 Bft) O 90 0 min 0,000 mm 0,0 UV-I 0 W/m 10,7 C 19,4 C 4,8 km/h (1 Bft) 100,00 %
20.07.2019 03:23 19,5 C 14,4 C 57 % 1015,5 hPa 0,0 l/m 1,6 km/h (1 Bft) O 90 0 min 0,000 mm 0,0 UV-I 0 W/m 10,8 C 19,5 C 1,6 km/h (1 Bft) 100,00 %
20.07.2019 03:22 19,4 C 14,4 C 57 % 1015,5 hPa 0,0 l/m 1,6 km/h (1 Bft) O 90 0 min 0,000 mm 0,0 UV-I 0 W/m 10,7 C 19,4 C 3,2 km/h (1 Bft) 100,00 %
20.07.2019 03:21 19,4 C 14,4 C 57 % 1015,5 hPa 0,0 l/m 0,0 km/h (0 Bft) O 90 0 min 0,000 mm 0,0 UV-I 0 W/m 10,7 C 19,4 C 1,6 km/h (1 Bft) 100,00 %
20.07.2019 03:20 19,4 C 14,4 C 57 % 1015,5 hPa 0,0 l/m 1,6 km/h (1 Bft) O 90 0 min 0,000 mm 0,0 UV-I 0 W/m 10,7 C 19,4 C 3,2 km/h (1 Bft) 100,00 %
20.07.2019 03:19 19,4 C 14,4 C 57 % 1015,4 hPa 0,0 l/m 3,2 km/h (1 Bft) O 90 0 min 0,000 mm 0,0 UV-I 0 W/m 10,7 C 19,4 C 3,2 km/h (1 Bft) 100,00 %
20.07.2019 03:18 19,4 C 14,4 C 57 % 1015,5 hPa 0,0 l/m 1,6 km/h (1 Bft) O 90 0 min 0,000 mm 0,0 UV-I 0 W/m 10,7 C 19,4 C 3,2 km/h (1 Bft) 100,00 %
20.07.2019 03:17 19,4 C 14,4 C 57 % 1015,6 hPa 0,0 l/m 1,6 km/h (1 Bft) O 90 0 min 0,000 mm 0,0 UV-I 0 W/m 10,7 C 19,4 C 3,2 km/h (1 Bft) 100,00 %
20.07.2019 03:16 19,5 C 14,4 C 57 % 1015,5 hPa 0,0 l/m 1,6 km/h (1 Bft) O 90 0 min 0,000 mm 0,0 UV-I 0 W/m 10,8 C 19,5 C 3,2 km/h (1 Bft) 95,65 %
20.07.2019 03:15 19,4 C 14,4 C 57 % 1015,5 hPa 0,0 l/m 1,6 km/h (1 Bft) O 90 0 min 0,000 mm 0,0 UV-I 0 W/m 10,7 C 19,4 C 3,2 km/h (1 Bft) 95,65 %
20.07.2019 03:14 19,4 C 14,4 C 57 % 1015,5 hPa 0,0 l/m 1,6 km/h (1 Bft) O 90 0 min 0,000 mm 0,0 UV-I 0 W/m 10,7 C 19,4 C 3,2 km/h (1 Bft) 100,00 %
20.07.2019 03:13 19,4 C 14,4 C 57 % 1015,5 hPa 0,0 l/m 1,6 km/h (1 Bft) O 90 0 min 0,000 mm 0,0 UV-I 0 W/m 10,7 C 19,4 C 3,2 km/h (1 Bft) 95,65 %
20.07.2019 03:12 19,4 C 14,4 C 57 % 1015,5 hPa 0,0 l/m 3,2 km/h (1 Bft) O 90 0 min 0,000 mm 0,0 UV-I 0 W/m 10,7 C 19,4 C 4,8 km/h (1 Bft) 100,00 %
20.07.2019 03:11 19,4 C 14,4 C 58 % 1015,5 hPa 0,0 l/m 3,2 km/h (1 Bft) O 90 0 min 0,000 mm 0,0 UV-I 0 W/m 10,9 C 19,4 C 4,8 km/h (1 Bft) 100,00 %
20.07.2019 03:10 19,3 C 14,4 C 58 % 1015,5 hPa 0,0 l/m 3,2 km/h (1 Bft) O 90 0 min 0,000 mm 0,0 UV-I 0 W/m 10,8 C 19,3 C 4,8 km/h (1 Bft) 100,00 %
20.07.2019 03:09 19,3 C 14,4 C 58 % 1015,5 hPa 0,0 l/m 1,6 km/h (1 Bft) O 90 0 min 0,000 mm 0,0 UV-I 0 W/m 10,8 C 19,3 C 3,2 km/h (1 Bft) 95,65 %
20.07.2019 03:08 19,3 C 14,4 C 58 % 1015,5 hPa 0,0 l/m 0,0 km/h (0 Bft) O 90 0 min 0,000 mm 0,0 UV-I 0 W/m 10,8 C 19,3 C 1,6 km/h (1 Bft) 95,65 %
20.07.2019 03:07 19,3 C 15,0 C 58 % 1015,5 hPa 0,0 l/m 0,0 km/h (0 Bft) N 0 0 min 0,000 mm 0,0 UV-I 0 W/m 10,8 C 19,3 C 0,0 km/h (0 Bft) 100,00 %
20.07.2019 03:06 19,2 C 15,0 C 59 % 1015,6 hPa 0,0 l/m 0,0 km/h (0 Bft) N 0 0 min 0,000 mm 0,0 UV-I 0 W/m 11,0 C 19,2 C 0,0 km/h (0 Bft) 100,00 %
20.07.2019 03:05 19,2 C 15,0 C 59 % 1015,6 hPa 0,0 l/m 0,0 km/h (0 Bft) N 0 0 min 0,000 mm 0,0 UV-I 0 W/m 11,0 C 19,2 C 0,0 km/h (0 Bft) 100,00 %
20.07.2019 03:04 19,2 C 15,0 C 59 % 1015,6 hPa 0,0 l/m 0,0 km/h (0 Bft) N 0 0 min 0,000 mm 0,0 UV-I 0 W/m 11,0 C 19,2 C 0,0 km/h (0 Bft) 95,65 %
20.07.2019 03:03 19,2 C 15,0 C 59 % 1015,6 hPa 0,0 l/m 0,0 km/h (0 Bft) N 0 0 min 0,000 mm 0,0 UV-I 0 W/m 11,0 C 19,2 C 0,0 km/h (0 Bft) 100,00 %
20.07.2019 03:02 19,1 C 15,0 C 59 % 1015,5 hPa 0,0 l/m 0,0 km/h (0 Bft) N 0 0 min 0,000 mm 0,0 UV-I 0 W/m 10,9 C 19,1 C 0,0 km/h (0 Bft) 100,00 %
20.07.2019 03:01 19,1 C 15,0 C 59 % 1015,6 hPa 0,0 l/m 0,0 km/h (0 Bft) N 0 0 min 0,000 mm 0,0 UV-I 0 W/m 10,9 C 19,1 C 0,0 km/h (0 Bft) 95,65 %
20.07.2019 03:00 19,1 C 15,0 C 59 % 1015,6 hPa 0,0 l/m 0,0 km/h (0 Bft) N 0 0 min 0,025 mm 0,0 UV-I 0 W/m 10,9 C 19,1 C 0,0 km/h (0 Bft) 100,00 %
20.07.2019 02:59 19,1 C 15,0 C 59 % 1015,6 hPa 0,0 l/m 0,0 km/h (0 Bft) N 0 0 min 0,000 mm 0,0 UV-I 0 W/m 10,9 C 19,1 C 0,0 km/h (0 Bft) 100,00 %
20.07.2019 02:58 19,1 C 15,0 C 59 % 1015,6 hPa 0,0 l/m 0,0 km/h (0 Bft) N 0 0 min 0,000 mm 0,0 UV-I 0 W/m 10,9 C 19,1 C 0,0 km/h (0 Bft) 100,00 %
20.07.2019 02:57 19,1 C 15,0 C 59 % 1015,7 hPa 0,0 l/m 0,0 km/h (0 Bft) N 0 0 min 0,000 mm 0,0 UV-I 0 W/m 10,9 C 19,1 C 0,0 km/h (0 Bft) 95,65 %
20.07.2019 02:56 19,0 C 15,0 C 59 % 1015,6 hPa 0,0 l/m 0,0 km/h (0 Bft) N 0 0 min 0,000 mm 0,0 UV-I 0 W/m 10,8 C 19,0 C 0,0 km/h (0 Bft) 100,00 %
20.07.2019 02:55 18,9 C 15,6 C 59 % 1015,6 hPa 0,0 l/m 0,0 km/h (0 Bft) N 0 0 min 0,000 mm 0,0 UV-I 0 W/m 10,7 C 18,9 C 0,0 km/h (0 Bft) 95,65 %
20.07.2019 02:54 18,9 C 15,6 C 60 % 1015,6 hPa 0,0 l/m 0,0 km/h (0 Bft) N 0 0 min 0,000 mm 0,0 UV-I 0 W/m 11,0 C 18,9 C 0,0 km/h (0 Bft) 100,00 %
20.07.2019 02:53 18,9 C 15,6 C 60 % 1015,7 hPa 0,0 l/m 0,0 km/h (0 Bft) N 0 0 min 0,000 mm 0,0 UV-I 0 W/m 11,0 C 18,9 C 0,0 km/h (0 Bft) 100,00 %
20.07.2019 02:52 18,9 C 15,6 C 60 % 1015,7 hPa 0,0 l/m 0,0 km/h (0 Bft) N 0 0 min 0,000 mm 0,0 UV-I 0 W/m 11,0 C 18,9 C 0,0 km/h (0 Bft) 95,65 %
20.07.2019 02:51 18,8 C 15,6 C 60 % 1015,7 hPa 0,0 l/m 0,0 km/h (0 Bft) N 0 0 min 0,000 mm 0,0 UV-I 0 W/m 10,9 C 18,8 C 0,0 km/h (0 Bft) 95,65 %
20.07.2019 02:50 18,8 C 15,6 C 60 % 1015,7 hPa 0,0 l/m 0,0 km/h (0 Bft) N 0 0 min 0,000 mm 0,0 UV-I 0 W/m 10,9 C 18,8 C 0,0 km/h (0 Bft) 95,65 %
20.07.2019 02:49 18,8 C 15,6 C 60 % 1015,8 hPa 0,0 l/m 0,0 km/h (0 Bft) N 0 0 min 0,000 mm 0,0 UV-I 0 W/m 10,9 C 18,8 C 0,0 km/h (0 Bft) 100,00 %
20.07.2019 02:48 18,8 C 15,6 C 60 % 1015,7 hPa 0,0 l/m 0,0 km/h (0 Bft) N 0 0 min 0,000 mm 0,0 UV-I 0 W/m 10,9 C 18,8 C 0,0 km/h (0 Bft) 91,30 %
20.07.2019 02:47 18,8 C 15,6 C 61 % 1015,8 hPa 0,0 l/m 0,0 km/h (0 Bft) N 0 0 min 0,000 mm 0,0 UV-I 0 W/m 11,1 C 18,8 C 0,0 km/h (0 Bft) 95,65 %
20.07.2019 02:46 18,9 C 15,6 C 60 % 1015,7 hPa 0,0 l/m 0,0 km/h (0 Bft) N 0 0 min 0,000 mm 0,0 UV-I 0 W/m 11,0 C 18,9 C 0,0 km/h (0 Bft) 100,00 %
20.07.2019 02:45 18,9 C 15,6 C 60 % 1015,7 hPa 0,0 l/m 0,0 km/h (0 Bft) N 0 0 min 0,000 mm 0,0 UV-I 0 W/m 11,0 C 18,9 C 0,0 km/h (0 Bft) 91,30 %
20.07.2019 02:44 18,9 C 15,6 C 60 % 1015,7 hPa 0,0 l/m 0,0 km/h (0 Bft) N 0 0 min 0,000 mm 0,0 UV-I 0 W/m 11,0 C 18,9 C 0,0 km/h (0 Bft) 100,00 %
20.07.2019 02:43 19,0 C 15,6 C 60 % 1015,8 hPa 0,0 l/m 0,0 km/h (0 Bft) N 0 0 min 0,000 mm 0,0 UV-I 0 W/m 11,1 C 19,0 C 0,0 km/h (0 Bft) 100,00 %
20.07.2019 02:42 19,0 C 15,6 C 60 % 1015,8 hPa 0,0 l/m 0,0 km/h (0 Bft) N 0 0 min 0,000 mm 0,0 UV-I 0 W/m 11,1 C 19,0 C 0,0 km/h (0 Bft) 95,65 %
20.07.2019 02:41 18,9 C 15,6 C 60 % 1015,8 hPa 0,0 l/m 0,0 km/h (0 Bft) N 0 0 min 0,000 mm 0,0 UV-I 0 W/m 11,0 C 18,9 C 0,0 km/h (0 Bft) 100,00 %
20.07.2019 02:40 18,9 C 15,6 C 60 % 1015,8 hPa 0,0 l/m 0,0 km/h (0 Bft) N 0 0 min 0,000 mm 0,0 UV-I 0 W/m 11,0 C 18,9 C 0,0 km/h (0 Bft) 100,00 %
20.07.2019 02:39 18,8 C 15,6 C 60 % 1015,8 hPa 0,0 l/m 0,0 km/h (0 Bft) N 0 0 min 0,000 mm 0,0 UV-I 0 W/m 10,9 C 18,8 C 0,0 km/h (0 Bft) 95,65 %
20.07.2019 02:38 18,8 C 15,6 C 60 % 1015,8 hPa 0,0 l/m 0,0 km/h (0 Bft) N 0 0 min 0,000 mm 0,0 UV-I 0 W/m 10,9 C 18,8 C 0,0 km/h (0 Bft) 100,00 %
20.07.2019 02:37 18,7 C 15,6 C 60 % 1015,8 hPa 0,0 l/m 0,0 km/h (0 Bft) N 0 0 min 0,000 mm 0,0 UV-I 0 W/m 10,8 C 18,7 C 0,0 km/h (0 Bft) 95,65 %
20.07.2019 02:36 18,6 C 15,6 C 61 % 1015,8 hPa 0,0 l/m 0,0 km/h (0 Bft) N 0 0 min 0,000 mm 0,0 UV-I 0 W/m 10,9 C 18,6 C 0,0 km/h (0 Bft) 100,00 %
20.07.2019 02:35 18,5 C 15,6 C 61 % 1015,7 hPa 0,0 l/m 0,0 km/h (0 Bft) O 90 0 min 0,000 mm 0,0 UV-I 0 W/m 10,8 C 18,5 C 1,6 km/h (1 Bft) 95,65 %
20.07.2019 02:34 18,4 C 15,6 C 61 % 1015,8 hPa 0,0 l/m 0,0 km/h (0 Bft) N 0 0 min 0,000 mm 0,0 UV-I 0 W/m 10,7 C 18,4 C 0,0 km/h (0 Bft) 100,00 %
20.07.2019 02:33 18,4 C 15,6 C 62 % 1015,8 hPa 0,0 l/m 0,0 km/h (0 Bft) N 0 0 min 0,000 mm 0,0 UV-I 0 W/m 11,0 C 18,4 C 0,0 km/h (0 Bft) 100,00 %
20.07.2019 02:32 18,3 C 15,6 C 62 % 1015,8 hPa 0,0 l/m 0,0 km/h (0 Bft) N 0 0 min 0,000 mm 0,0 UV-I 0 W/m 10,9 C 18,3 C 0,0 km/h (0 Bft) 100,00 %
20.07.2019 02:31 18,3 C 15,6 C 62 % 1015,9 hPa 0,0 l/m 0,0 km/h (0 Bft) N 0 0 min 0,000 mm 0,0 UV-I 0 W/m 10,9 C 18,3 C 0,0 km/h (0 Bft) 100,00 %
20.07.2019 02:30 18,3 C 15,6 C 62 % 1015,8 hPa 0,0 l/m 0,0 km/h (0 Bft) O 90 0 min 0,000 mm 0,0 UV-I 0 W/m 10,9 C 18,3 C 1,6 km/h (1 Bft) 100,00 %
20.07.2019 02:29 18,3 C 15,6 C 62 % 1015,8 hPa 0,0 l/m 0,0 km/h (0 Bft) N 0 0 min 0,000 mm 0,0 UV-I 0 W/m 10,9 C 18,3 C 0,0 km/h (0 Bft) 100,00 %
20.07.2019 02:28 18,3 C 16,1 C 62 % 1015,9 hPa 0,0 l/m 0,0 km/h (0 Bft) N 0 0 min 0,000 mm 0,0 UV-I 0 W/m 10,9 C 18,3 C 0,0 km/h (0 Bft) 95,65 %
20.07.2019 02:27 18,3 C 16,1 C 62 % 1015,9 hPa 0,0 l/m 0,0 km/h (0 Bft) N 0 0 min 0,000 mm 0,0 UV-I 0 W/m 10,9 C 18,3 C 0,0 km/h (0 Bft) 100,00 %
20.07.2019 02:26 18,4 C 16,1 C 62 % 1015,9 hPa 0,0 l/m 0,0 km/h (0 Bft) N 0 0 min 0,000 mm 0,0 UV-I 0 W/m 11,0 C 18,4 C 0,0 km/h (0 Bft) 100,00 %
20.07.2019 02:25 18,4 C 16,1 C 62 % 1015,9 hPa 0,0 l/m 0,0 km/h (0 Bft) N 0 0 min 0,000 mm 0,0 UV-I 0 W/m 11,0 C 18,4 C 0,0 km/h (0 Bft) 95,65 %
20.07.2019 02:24 18,4 C 16,1 C 62 % 1015,9 hPa 0,0 l/m 0,0 km/h (0 Bft) O 90 0 min 0,000 mm 0,0 UV-I 0 W/m 11,0 C 18,4 C 1,6 km/h (1 Bft) 100,00 %
20.07.2019 02:23 18,5 C 16,1 C 62 % 1015,9 hPa 0,0 l/m 1,6 km/h (1 Bft) O 90 0 min 0,000 mm 0,0 UV-I 0 W/m 11,1 C 18,5 C 1,6 km/h (1 Bft) 95,65 %
20.07.2019 02:22 18,6 C 16,1 C 62 % 1015,8 hPa 0,0 l/m 1,6 km/h (1 Bft) O 90 0 min 0,000 mm 0,0 UV-I 0 W/m 11,2 C 18,6 C 1,6 km/h (1 Bft) 100,00 %
20.07.2019 02:21 18,6 C 16,1 C 61 % 1015,9 hPa 0,0 l/m 1,6 km/h (1 Bft) O 90 0 min 0,000 mm 0,0 UV-I 0 W/m 10,9 C 18,6 C 3,2 km/h (1 Bft) 100,00 %
20.07.2019 02:20 18,6 C 16,1 C 61 % 1015,9 hPa 0,0 l/m 1,6 km/h (1 Bft) O 90 0 min 0,000 mm 0,0 UV-I 0 W/m 10,9 C 18,6 C 3,2 km/h (1 Bft) 95,65 %
20.07.2019 02:19 18,6 C 16,1 C 61 % 1015,9 hPa 0,0 l/m 1,6 km/h (1 Bft) O 90 0 min 0,000 mm 0,0 UV-I 0 W/m 10,9 C 18,6 C 3,2 km/h (1 Bft) 100,00 %
20.07.2019 02:18 18,7 C 16,1 C 61 % 1015,9 hPa 0,0 l/m 1,6 km/h (1 Bft) O 90 0 min 0,000 mm 0,0 UV-I 0 W/m 11,0 C 18,7 C 3,2 km/h (1 Bft) 100,00 %
20.07.2019 02:17 18,7 C 16,1 C 61 % 1015,9 hPa 0,0 l/m 1,6 km/h (1 Bft) O 90 0 min 0,000 mm 0,0 UV-I 0 W/m 11,0 C 18,7 C 3,2 km/h (1 Bft) 100,00 %
20.07.2019 02:16 18,7 C 16,1 C 61 % 1015,9 hPa 0,0 l/m 1,6 km/h (1 Bft) O 90 0 min 0,000 mm 0,0 UV-I 0 W/m 11,0 C 18,7 C 3,2 km/h (1 Bft) 100,00 %
20.07.2019 02:15 18,7 C 16,1 C 61 % 1015,9 hPa 0,0 l/m 1,6 km/h (1 Bft) O 90 0 min 0,000 mm 0,0 UV-I 0 W/m 11,0 C 18,7 C 1,6 km/h (1 Bft) 95,65 %
20.07.2019 02:14 18,7 C 16,1 C 61 % 1015,9 hPa 0,0 l/m 1,6 km/h (1 Bft) O 90 0 min 0,000 mm 0,0 UV-I 0 W/m 11,0 C 18,7 C 3,2 km/h (1 Bft) 100,00 %
20.07.2019 02:13 18,7 C 16,7 C 61 % 1015,9 hPa 0,0 l/m 1,6 km/h (1 Bft) O 90 0 min 0,000 mm 0,0 UV-I 0 W/m 11,0 C 18,7 C 3,2 km/h (1 Bft) 100,00 %
20.07.2019 02:12 18,7 C 16,7 C 61 % 1015,8 hPa 0,0 l/m 1,6 km/h (1 Bft) O 90 0 min 0,000 mm 0,0 UV-I 0 W/m 11,0 C 18,7 C 3,2 km/h (1 Bft) 100,00 %
20.07.2019 02:11 18,7 C 16,7 C 61 % 1015,9 hPa 0,0 l/m 1,6 km/h (1 Bft) O 90 0 min 0,000 mm 0,0 UV-I 0 W/m 11,0 C 18,7 C 3,2 km/h (1 Bft) 100,00 %
20.07.2019 02:10 18,7 C 16,7 C 61 % 1015,9 hPa 0,0 l/m 1,6 km/h (1 Bft) O 90 0 min 0,000 mm 0,0 UV-I 0 W/m 11,0 C 18,7 C 3,2 km/h (1 Bft) 100,00 %
20.07.2019 02:09 18,7 C 16,7 C 61 % 1016,1 hPa 0,0 l/m 3,2 km/h (1 Bft) O 90 0 min 0,000 mm 0,0 UV-I 0 W/m 11,0 C 18,7 C 3,2 km/h (1 Bft) 100,00 %
20.07.2019 02:08 18,6 C 16,7 C 61 % 1015,9 hPa 0,0 l/m 1,6 km/h (1 Bft) O 90 0 min 0,000 mm 0,0 UV-I 0 W/m 10,9 C 18,6 C 3,2 km/h (1 Bft) 95,65 %
20.07.2019 02:07 18,6 C 16,7 C 61 % 1016,1 hPa 0,0 l/m 1,6 km/h (1 Bft) O 90 0 min 0,000 mm 0,0 UV-I 0 W/m 10,9 C 18,6 C 3,2 km/h (1 Bft) 100,00 %
20.07.2019 02:06 18,6 C 16,7 C 62 % 1015,9 hPa 0,0 l/m 1,6 km/h (1 Bft) O 90 0 min 0,000 mm 0,0 UV-I 0 W/m 11,2 C 18,6 C 3,2 km/h (1 Bft) 95,65 %
20.07.2019 02:05 18,6 C 16,7 C 62 % 1015,9 hPa 0,0 l/m 1,6 km/h (1 Bft) O 90 0 min 0,000 mm 0,0 UV-I 0 W/m 11,2 C 18,6 C 1,6 km/h (1 Bft) 100,00 %
20.07.2019 02:04 18,6 C 16,7 C 62 % 1015,9 hPa 0,0 l/m 1,6 km/h (1 Bft) O 90 0 min 0,000 mm 0,0 UV-I 0 W/m 11,2 C 18,6 C 1,6 km/h (1 Bft) 95,65 %
20.07.2019 02:03 18,5 C 16,7 C 62 % 1015,9 hPa 0,0 l/m 0,0 km/h (0 Bft) O 90 0 min 0,000 mm 0,0 UV-I 0 W/m 11,1 C 18,5 C 1,6 km/h (1 Bft) 95,65 %
20.07.2019 02:02 18,6 C 16,7 C 62 % 1016,0 hPa 0,0 l/m 1,6 km/h (1 Bft) O 90 0 min 0,000 mm 0,0 UV-I 0 W/m 11,2 C 18,6 C 3,2 km/h (1 Bft) 95,65 %
20.07.2019 02:01 18,5 C 16,7 C 62 % 1016,0 hPa 0,0 l/m 1,6 km/h (1 Bft) O 90 0 min 0,000 mm 0,0 UV-I 0 W/m 11,1 C 18,5 C 1,6 km/h (1 Bft) 100,00 %
20.07.2019 02:00 18,5 C 16,7 C 62 % 1016,0 hPa 0,0 l/m 0,0 km/h (0 Bft) N 0 0 min 0,051 mm 0,0 UV-I 0 W/m 11,1 C 18,5 C 0,0 km/h (0 Bft) 95,65 %
20.07.2019 01:59 18,4 C 16,7 C 62 % 1016,0 hPa 0,0 l/m 0,0 km/h (0 Bft) N 0 0 min 0,000 mm 0,0 UV-I 0 W/m 11,0 C 18,4 C 0,0 km/h (0 Bft) 100,00 %
20.07.2019 01:58 18,4 C 16,7 C 62 % 1016,0 hPa 0,0 l/m 0,0 km/h (0 Bft) N 0 0 min 0,000 mm 0,0 UV-I 0 W/m 11,0 C 18,4 C 0,0 km/h (0 Bft) 100,00 %
20.07.2019 01:57 18,4 C 16,7 C 62 % 1015,9 hPa 0,0 l/m 0,0 km/h (0 Bft) N 0 0 min 0,000 mm 0,0 UV-I 0 W/m 11,0 C 18,4 C 0,0 km/h (0 Bft) 100,00 %
20.07.2019 01:56 18,4 C 16,7 C 62 % 1016,1 hPa 0,0 l/m 0,0 km/h (0 Bft) N 0 0 min 0,000 mm 0,0 UV-I 0 W/m 11,0 C 18,4 C 0,0 km/h (0 Bft) 100,00 %
20.07.2019 01:55 18,4 C 16,7 C 62 % 1015,9 hPa 0,0 l/m 0,0 km/h (0 Bft) N 0 0 min 0,000 mm 0,0 UV-I 0 W/m 11,0 C 18,4 C 0,0 km/h (0 Bft) 100,00 %
20.07.2019 01:54 18,4 C 16,7 C 62 % 1015,9 hPa 0,0 l/m 0,0 km/h (0 Bft) N 0 0 min 0,000 mm 0,0 UV-I 0 W/m 11,0 C 18,4 C 0,0 km/h (0 Bft) 100,00 %
20.07.2019 01:53 18,3 C 16,7 C 62 % 1015,9 hPa 0,0 l/m 0,0 km/h (0 Bft) N 0 0 min 0,000 mm 0,0 UV-I 0 W/m 10,9 C 18,3 C 0,0 km/h (0 Bft) 100,00 %
20.07.2019 01:52 18,3 C 16,7 C 63 % 1015,9 hPa 0,0 l/m 0,0 km/h (0 Bft) N 0 0 min 0,000 mm 0,0 UV-I 0 W/m 11,1 C 18,3 C 0,0 km/h (0 Bft) 100,00 %
20.07.2019 01:51 18,3 C 16,7 C 63 % 1015,9 hPa 0,0 l/m 0,0 km/h (0 Bft) N 0 0 min 0,000 mm 0,0 UV-I 0 W/m 11,1 C 18,3 C 0,0 km/h (0 Bft) 100,00 %
20.07.2019 01:50 18,3 C 16,7 C 63 % 1015,9 hPa 0,0 l/m 0,0 km/h (0 Bft) N 0 0 min 0,000 mm 0,0 UV-I 0 W/m 11,1 C 18,3 C 0,0 km/h (0 Bft) 100,00 %
20.07.2019 01:49 18,3 C 16,7 C 63 % 1015,9 hPa 0,0 l/m 0,0 km/h (0 Bft) N 0 0 min 0,000 mm 0,0 UV-I 0 W/m 11,1 C 18,3 C 0,0 km/h (0 Bft) 100,00 %
20.07.2019 01:48 18,3 C 16,7 C 63 % 1016,0 hPa 0,0 l/m 0,0 km/h (0 Bft) N 0 0 min 0,000 mm 0,0 UV-I 0 W/m 11,1 C 18,3 C 0,0 km/h (0 Bft) 100,00 %
20.07.2019 01:47 18,3 C 16,1 C 62 % 1015,8 hPa 0,0 l/m 0,0 km/h (0 Bft) O 90 0 min 0,000 mm 0,0 UV-I 0 W/m 10,9 C 18,3 C 1,6 km/h (1 Bft) 95,65 %
20.07.2019 01:46 18,3 C 16,1 C 62 % 1015,9 hPa 0,0 l/m 1,6 km/h (1 Bft) O 90 0 min 0,000 mm 0,0 UV-I 0 W/m 10,9 C 18,3 C 3,2 km/h (1 Bft) 100,00 %
20.07.2019 01:45 18,2 C 16,1 C 62 % 1015,9 hPa 0,0 l/m 0,0 km/h (0 Bft) O 90 0 min 0,000 mm 0,0 UV-I 0 W/m 10,8 C 18,2 C 3,2 km/h (1 Bft) 100,00 %
20.07.2019 01:44 18,2 C 16,1 C 63 % 1015,9 hPa 0,0 l/m 0,0 km/h (0 Bft) N 0 0 min 0,000 mm 0,0 UV-I 0 W/m 11,0 C 18,2 C 0,0 km/h (0 Bft) 95,65 %
20.07.2019 01:43 18,2 C 16,1 C 63 % 1015,9 hPa 0,0 l/m 0,0 km/h (0 Bft) N 0 0 min 0,000 mm 0,0 UV-I 0 W/m 11,0 C 18,2 C 0,0 km/h (0 Bft) 100,00 %
20.07.2019 01:42 18,2 C 16,1 C 63 % 1015,9 hPa 0,0 l/m 0,0 km/h (0 Bft) N 0 0 min 0,000 mm 0,0 UV-I 0 W/m 11,0 C 18,2 C 0,0 km/h (0 Bft) 100,00 %
20.07.2019 01:41 18,3 C 16,1 C 63 % 1015,9 hPa 0,0 l/m 0,0 km/h (0 Bft) N 0 0 min 0,000 mm 0,0 UV-I 0 W/m 11,1 C 18,3 C 0,0 km/h (0 Bft) 100,00 %
20.07.2019 01:40 18,3 C 16,1 C 63 % 1015,9 hPa 0,0 l/m 0,0 km/h (0 Bft) N 0 0 min 0,000 mm 0,0 UV-I 0 W/m 11,1 C 18,3 C 0,0 km/h (0 Bft) 95,65 %
20.07.2019 01:39 18,3 C 16,1 C 63 % 1015,9 hPa 0,0 l/m 0,0 km/h (0 Bft) O 90 0 min 0,000 mm 0,0 UV-I 0 W/m 11,1 C 18,3 C 1,6 km/h (1 Bft) 100,00 %
20.07.2019 01:38 18,3 C 15,6 C 63 % 1015,9 hPa 0,0 l/m 1,6 km/h (1 Bft) O 90 0 min 0,000 mm 0,0 UV-I 0 W/m 11,1 C 18,3 C 3,2 km/h (1 Bft) 100,00 %
20.07.2019 01:37 18,3 C 15,6 C 63 % 1015,9 hPa 0,0 l/m 3,2 km/h (1 Bft) O 90 0 min 0,000 mm 0,0 UV-I 0 W/m 11,1 C 18,3 C 4,8 km/h (1 Bft) 91,30 %
20.07.2019 01:36 18,3 C 15,6 C 63 % 1016,1 hPa 0,0 l/m 3,2 km/h (1 Bft) O 90 0 min 0,000 mm 0,0 UV-I 0 W/m 11,1 C 18,3 C 3,2 km/h (1 Bft) 100,00 %
20.07.2019 01:35 18,3 C 15,6 C 62 % 1015,9 hPa 0,0 l/m 3,2 km/h (1 Bft) O 90 0 min 0,000 mm 0,0 UV-I 0 W/m 10,9 C 18,3 C 4,8 km/h (1 Bft) 95,65 %
20.07.2019 01:34 18,3 C 15,6 C 63 % 1015,9 hPa 0,0 l/m 3,2 km/h (1 Bft) O 90 0 min 0,000 mm 0,0 UV-I 0 W/m 11,1 C 18,3 C 4,8 km/h (1 Bft) 95,65 %
20.07.2019 01:33 18,3 C 15,0 C 62 % 1016,0 hPa 0,0 l/m 3,2 km/h (1 Bft) O 90 0 min 0,000 mm 0,0 UV-I 0 W/m 10,9 C 18,3 C 4,8 km/h (1 Bft) 100,00 %
20.07.2019 01:32 18,3 C 15,0 C 62 % 1015,9 hPa 0,0 l/m 1,6 km/h (1 Bft) O 90 0 min 0,000 mm 0,0 UV-I 0 W/m 10,9 C 18,3 C 3,2 km/h (1 Bft) 95,65 %
20.07.2019 01:31 18,3 C 15,0 C 62 % 1015,9 hPa 0,0 l/m 1,6 km/h (1 Bft) O 90 0 min 0,000 mm 0,0 UV-I 0 W/m 10,9 C 18,3 C 3,2 km/h (1 Bft) 95,65 %
20.07.2019 01:30 18,3 C 15,0 C 62 % 1015,8 hPa 0,0 l/m 3,2 km/h (1 Bft) O 90 0 min 0,000 mm 0,0 UV-I 0 W/m 10,9 C 18,3 C 4,8 km/h (1 Bft) 100,00 %
20.07.2019 01:29 18,3 C 15,0 C 62 % 1015,9 hPa 0,0 l/m 3,2 km/h (1 Bft) O 90 0 min 0,000 mm 0,0 UV-I 0 W/m 10,9 C 18,3 C 3,2 km/h (1 Bft) 91,30 %
20.07.2019 01:28 18,3 C 15,0 C 62 % 1015,8 hPa 0,0 l/m 3,2 km/h (1 Bft) O 90 0 min 0,000 mm 0,0 UV-I 0 W/m 10,9 C 18,3 C 4,8 km/h (1 Bft) 100,00 %
20.07.2019 01:27 18,3 C 15,0 C 62 % 1015,8 hPa 0,0 l/m 3,2 km/h (1 Bft) O 90 0 min 0,000 mm 0,0 UV-I 0 W/m 10,9 C 18,3 C 4,8 km/h (1 Bft) 86,96 %
20.07.2019 01:26 18,3 C 15,0 C 62 % 1015,9 hPa 0,0 l/m 3,2 km/h (1 Bft) O 90 0 min 0,000 mm 0,0 UV-I 0 W/m 10,9 C 18,3 C 3,2 km/h (1 Bft) 100,00 %
20.07.2019 01:25 18,3 C 15,0 C 62 % 1015,9 hPa 0,0 l/m 3,2 km/h (1 Bft) O 90 0 min 0,000 mm 0,0 UV-I 0 W/m 10,9 C 18,3 C 4,8 km/h (1 Bft) 100,00 %
20.07.2019 01:24 18,3 C 14,4 C 62 % 1015,8 hPa 0,0 l/m 1,6 km/h (1 Bft) O 90 0 min 0,000 mm 0,0 UV-I 0 W/m 10,9 C 18,3 C 3,2 km/h (1 Bft) 100,00 %
20.07.2019 01:23 18,3 C 14,4 C 62 % 1015,9 hPa 0,0 l/m 3,2 km/h (1 Bft) O 90 0 min 0,000 mm 0,0 UV-I 0 W/m 10,9 C 18,3 C 4,8 km/h (1 Bft) 95,65 %
20.07.2019 01:22 18,3 C 14,4 C 62 % 1015,9 hPa 0,0 l/m 3,2 km/h (1 Bft) O 90 0 min 0,000 mm 0,0 UV-I 0 W/m 10,9 C 18,3 C 3,2 km/h (1 Bft) 95,65 %
20.07.2019 01:21 18,3 C 14,4 C 62 % 1015,9 hPa 0,0 l/m 3,2 km/h (1 Bft) O 90 0 min 0,000 mm 0,0 UV-I 0 W/m 10,9 C 18,3 C 3,2 km/h (1 Bft) 100,00 %
20.07.2019 01:20 18,3 C 14,4 C 62 % 1015,9 hPa 0,0 l/m 1,6 km/h (1 Bft) O 90 0 min 0,000 mm 0,0 UV-I 0 W/m 10,9 C 18,3 C 3,2 km/h (1 Bft) 91,30 %
20.07.2019 01:19 18,4 C 14,4 C 62 % 1015,9 hPa 0,0 l/m 1,6 km/h (1 Bft) O 90 0 min 0,000 mm 0,0 UV-I 0 W/m 11,0 C 18,4 C 3,2 km/h (1 Bft) 100,00 %
20.07.2019 01:18 18,4 C 14,4 C 62 % 1016,0 hPa 0,0 l/m 1,6 km/h (1 Bft) O 90 0 min 0,000 mm 0,0 UV-I 0 W/m 11,0 C 18,4 C 3,2 km/h (1 Bft) 91,30 %
20.07.2019 01:17 18,4 C 14,4 C 62 % 1016,1 hPa 0,0 l/m 1,6 km/h (1 Bft) O 90 0 min 0,000 mm 0,0 UV-I 0 W/m 11,0 C 18,4 C 3,2 km/h (1 Bft) 86,96 %
20.07.2019 01:16 18,4 C 14,4 C 62 % 1015,9 hPa 0,0 l/m 1,6 km/h (1 Bft) O 90 0 min 0,000 mm 0,0 UV-I 0 W/m 11,0 C 18,4 C 3,2 km/h (1 Bft) 100,00 %
20.07.2019 01:15 18,4 C 14,4 C 62 % 1016,1 hPa 0,0 l/m 1,6 km/h (1 Bft) O 90 0 min 0,000 mm 0,0 UV-I 0 W/m 11,0 C 18,4 C 1,6 km/h (1 Bft) 95,65 %
20.07.2019 01:14 18,5 C 14,4 C 62 % 1016,1 hPa 0,0 l/m 1,6 km/h (1 Bft) O 90 0 min 0,000 mm 0,0 UV-I 0 W/m 11,1 C 18,5 C 3,2 km/h (1 Bft) 95,65 %
20.07.2019 01:13 18,5 C 14,4 C 62 % 1016,0 hPa 0,0 l/m 1,6 km/h (1 Bft) O 90 0 min 0,000 mm 0,0 UV-I 0 W/m 11,1 C 18,5 C 3,2 km/h (1 Bft) 95,65 %
20.07.2019 01:12 18,5 C 14,4 C 62 % 1016,1 hPa 0,0 l/m 1,6 km/h (1 Bft) O 90 0 min 0,000 mm 0,0 UV-I 0 W/m 11,1 C 18,5 C 3,2 km/h (1 Bft) 100,00 %
20.07.2019 01:11 18,5 C 14,4 C 62 % 1016,0 hPa 0,0 l/m 1,6 km/h (1 Bft) O 90 0 min 0,000 mm 0,0 UV-I 0 W/m 11,1 C 18,5 C 3,2 km/h (1 Bft) 91,30 %
20.07.2019 01:10 18,5 C 14,4 C 62 % 1015,9 hPa 0,0 l/m 1,6 km/h (1 Bft) O 90 0 min 0,000 mm 0,0 UV-I 0 W/m 11,1 C 18,5 C 3,2 km/h (1 Bft) 100,00 %
20.07.2019 01:09 18,5 C 14,4 C 62 % 1015,9 hPa 0,0 l/m 1,6 km/h (1 Bft) O 90 0 min 0,000 mm 0,0 UV-I 0 W/m 11,1 C 18,5 C 3,2 km/h (1 Bft) 100,00 %
20.07.2019 01:08 18,4 C 14,4 C 62 % 1015,9 hPa 0,0 l/m 3,2 km/h (1 Bft) O 90 0 min 0,000 mm 0,0 UV-I 0 W/m 11,0 C 18,4 C 4,8 km/h (1 Bft) 95,65 %
20.07.2019 01:07 18,4 C 14,4 C 62 % 1015,9 hPa 0,0 l/m 1,6 km/h (1 Bft) O 90 0 min 0,000 mm 0,0 UV-I 0 W/m 11,0 C 18,4 C 3,2 km/h (1 Bft) 100,00 %
20.07.2019 01:06 18,4 C 14,4 C 62 % 1016,0 hPa 0,0 l/m 1,6 km/h (1 Bft) O 90 0 min 0,000 mm 0,0 UV-I 0 W/m 11,0 C 18,4 C 3,2 km/h (1 Bft) 95,65 %
20.07.2019 01:05 18,4 C 14,4 C 62 % 1015,8 hPa 0,0 l/m 1,6 km/h (1 Bft) O 90 0 min 0,000 mm 0,0 UV-I 0 W/m 11,0 C 18,4 C 3,2 km/h (1 Bft) 95,65 %
20.07.2019 01:04 18,4 C 14,4 C 62 % 1015,9 hPa 0,0 l/m 1,6 km/h (1 Bft) O 90 0 min 0,000 mm 0,0 UV-I 0 W/m 11,0 C 18,4 C 3,2 km/h (1 Bft) 100,00 %
20.07.2019 01:03 18,5 C 15,0 C 62 % 1015,9 hPa 0,0 l/m 1,6 km/h (1 Bft) O 90 0 min 0,000 mm 0,0 UV-I 0 W/m 11,1 C 18,5 C 3,2 km/h (1 Bft) 100,00 %
20.07.2019 01:02 18,5 C 15,0 C 62 % 1015,9 hPa 0,0 l/m 1,6 km/h (1 Bft) O 90 0 min 0,000 mm 0,0 UV-I 0 W/m 11,1 C 18,5 C 1,6 km/h (1 Bft) 95,65 %
20.07.2019 01:01 18,6 C 15,0 C 62 % 1015,9 hPa 0,0 l/m 1,6 km/h (1 Bft) O 90 0 min 0,000 mm 0,0 UV-I 0 W/m 11,2 C 18,6 C 3,2 km/h (1 Bft) 95,65 %
20.07.2019 01:00 18,6 C 15,0 C 62 % 1015,9 hPa 0,0 l/m 1,6 km/h (1 Bft) O 90 0 min 0,051 mm 0,0 UV-I 0 W/m 11,2 C 18,6 C 3,2 km/h (1 Bft) 100,00 %
20.07.2019 00:59 18,6 C 15,0 C 62 % 1015,9 hPa 0,0 l/m 3,2 km/h (1 Bft) O 90 0 min 0,000 mm 0,0 UV-I 0 W/m 11,2 C 18,6 C 3,2 km/h (1 Bft) 95,65 %
20.07.2019 00:58 18,6 C 15,0 C 62 % 1015,9 hPa 0,0 l/m 3,2 km/h (1 Bft) O 90 0 min 0,000 mm 0,0 UV-I 0 W/m 11,2 C 18,6 C 4,8 km/h (1 Bft) 95,65 %
20.07.2019 00:57 18,6 C 15,0 C 62 % 1016,0 hPa 0,0 l/m 3,2 km/h (1 Bft) O 90 0 min 0,000 mm 0,0 UV-I 0 W/m 11,2 C 18,6 C 3,2 km/h (1 Bft) 95,65 %
20.07.2019 00:56 18,6 C 15,0 C 62 % 1016,1 hPa 0,0 l/m 3,2 km/h (1 Bft) O 90 0 min 0,000 mm 0,0 UV-I 0 W/m 11,2 C 18,6 C 3,2 km/h (1 Bft) 100,00 %
20.07.2019 00:55 18,6 C 15,0 C 62 % 1016,1 hPa 0,0 l/m 3,2 km/h (1 Bft) O 90 0 min 0,000 mm 0,0 UV-I 0 W/m 11,2 C 18,6 C 4,8 km/h (1 Bft) 100,00 %
20.07.2019 00:54 18,6 C 15,0 C 62 % 1015,9 hPa 0,0 l/m 3,2 km/h (1 Bft) O 90 0 min 0,000 mm 0,0 UV-I 0 W/m 11,2 C 18,6 C 3,2 km/h (1 Bft) 100,00 %
20.07.2019 00:53 18,6 C 15,0 C 62 % 1016,0 hPa 0,0 l/m 3,2 km/h (1 Bft) O 90 0 min 0,000 mm 0,0 UV-I 0 W/m 11,2 C 18,6 C 4,8 km/h (1 Bft) 91,30 %
20.07.2019 00:52 18,6 C 15,0 C 62 % 1015,9 hPa 0,0 l/m 3,2 km/h (1 Bft) O 90 0 min 0,000 mm 0,0 UV-I 0 W/m 11,2 C 18,6 C 4,8 km/h (1 Bft) 100,00 %
20.07.2019 00:51 18,6 C 15,0 C 62 % 1016,1 hPa 0,0 l/m 3,2 km/h (1 Bft) O 90 0 min 0,000 mm 0,0 UV-I 0 W/m 11,2 C 18,6 C 4,8 km/h (1 Bft) 100,00 %
20.07.2019 00:50 18,6 C 15,0 C 62 % 1016,1 hPa 0,0 l/m 3,2 km/h (1 Bft) O 90 0 min 0,000 mm 0,0 UV-I 0 W/m 11,2 C 18,6 C 4,8 km/h (1 Bft) 100,00 %
20.07.2019 00:49 18,6 C 15,0 C 62 % 1016,1 hPa 0,0 l/m 1,6 km/h (1 Bft) O 90 0 min 0,000 mm 0,0 UV-I 0 W/m 11,2 C 18,6 C 3,2 km/h (1 Bft) 100,00 %
20.07.2019 00:48 18,6 C 15,0 C 62 % 1016,1 hPa 0,0 l/m 1,6 km/h (1 Bft) O 90 0 min 0,000 mm 0,0 UV-I 0 W/m 11,2 C 18,6 C 1,6 km/h (1 Bft) 100,00 %
20.07.2019 00:47 18,6 C 15,0 C 62 % 1016,1 hPa 0,0 l/m 1,6 km/h (1 Bft) O 90 0 min 0,000 mm 0,0 UV-I 0 W/m 11,2 C 18,6 C 3,2 km/h (1 Bft) 100,00 %
20.07.2019 00:46 18,6 C 15,0 C 62 % 1015,9 hPa 0,0 l/m 1,6 km/h (1 Bft) O 90 0 min 0,000 mm 0,0 UV-I 0 W/m 11,2 C 18,6 C 3,2 km/h (1 Bft) 100,00 %
20.07.2019 00:45 18,6 C 15,0 C 61 % 1016,1 hPa 0,0 l/m 3,2 km/h (1 Bft) O 90 0 min 0,000 mm 0,0 UV-I 0 W/m 10,9 C 18,6 C 4,8 km/h (1 Bft) 100,00 %
20.07.2019 00:44 18,7 C 15,0 C 61 % 1016,1 hPa 0,0 l/m 1,6 km/h (1 Bft) O 90 0 min 0,000 mm 0,0 UV-I 0 W/m 11,0 C 18,7 C 3,2 km/h (1 Bft) 100,00 %
20.07.2019 00:43 18,7 C 15,0 C 61 % 1016,1 hPa 0,0 l/m 1,6 km/h (1 Bft) O 90 0 min 0,000 mm 0,0 UV-I 0 W/m 11,0 C 18,7 C 3,2 km/h (1 Bft) 100,00 %
20.07.2019 00:42 18,7 C 15,0 C 61 % 1016,1 hPa 0,0 l/m 3,2 km/h (1 Bft) O 90 0 min 0,000 mm 0,0 UV-I 0 W/m 11,0 C 18,7 C 3,2 km/h (1 Bft) 100,00 %
20.07.2019 00:41 18,7 C 15,0 C 61 % 1016,1 hPa 0,0 l/m 3,2 km/h (1 Bft) O 90 0 min 0,000 mm 0,0 UV-I 0 W/m 11,0 C 18,7 C 3,2 km/h (1 Bft) 100,00 %
20.07.2019 00:40 18,7 C 15,0 C 61 % 1016,1 hPa 0,0 l/m 3,2 km/h (1 Bft) O 90 0 min 0,000 mm 0,0 UV-I 0 W/m 11,0 C 18,7 C 3,2 km/h (1 Bft) 100,00 %
20.07.2019 00:39 18,7 C 15,0 C 61 % 1016,1 hPa 0,0 l/m 3,2 km/h (1 Bft) O 90 0 min 0,000 mm 0,0 UV-I 0 W/m 11,0 C 18,7 C 4,8 km/h (1 Bft) 95,65 %
20.07.2019 00:38 18,7 C 15,0 C 61 % 1016,1 hPa 0,0 l/m 1,6 km/h (1 Bft) O 90 0 min 0,000 mm 0,0 UV-I 0 W/m 11,0 C 18,7 C 3,2 km/h (1 Bft) 100,00 %
20.07.2019 00:37 18,7 C 15,0 C 61 % 1016,1 hPa 0,0 l/m 3,2 km/h (1 Bft) O 90 0 min 0,000 mm 0,0 UV-I 0 W/m 11,0 C 18,7 C 3,2 km/h (1 Bft) 95,65 %
20.07.2019 00:36 18,7 C 15,0 C 61 % 1015,9 hPa 0,0 l/m 3,2 km/h (1 Bft) O 90 0 min 0,000 mm 0,0 UV-I 0 W/m 11,0 C 18,7 C 4,8 km/h (1 Bft) 100,00 %
20.07.2019 00:35 18,7 C 15,0 C 61 % 1016,1 hPa 0,0 l/m 3,2 km/h (1 Bft) O 90 0 min 0,000 mm 0,0 UV-I 0 W/m 11,0 C 18,7 C 4,8 km/h (1 Bft) 100,00 %
20.07.2019 00:34 18,7 C 15,0 C 61 % 1016,1 hPa 0,0 l/m 1,6 km/h (1 Bft) O 90 0 min 0,000 mm 0,0 UV-I 0 W/m 11,0 C 18,7 C 3,2 km/h (1 Bft) 100,00 %
20.07.2019 00:33 18,8 C 15,0 C 61 % 1016,2 hPa 0,0 l/m 1,6 km/h (1 Bft) O 90 0 min 0,000 mm 0,0 UV-I 0 W/m 11,1 C 18,8 C 3,2 km/h (1 Bft) 100,00 %
20.07.2019 00:32 18,8 C 15,0 C 61 % 1016,1 hPa 0,0 l/m 3,2 km/h (1 Bft) O 90 0 min 0,000 mm 0,0 UV-I 0 W/m 11,1 C 18,8 C 4,8 km/h (1 Bft) 95,65 %
20.07.2019 00:31 18,8 C 15,0 C 61 % 1016,1 hPa 0,0 l/m 1,6 km/h (1 Bft) O 90 0 min 0,000 mm 0,0 UV-I 0 W/m 11,1 C 18,8 C 3,2 km/h (1 Bft) 100,00 %
20.07.2019 00:30 18,8 C 15,0 C 61 % 1016,1 hPa 0,0 l/m 1,6 km/h (1 Bft) O 90 0 min 0,000 mm 0,0 UV-I 0 W/m 11,1 C 18,8 C 3,2 km/h (1 Bft) 100,00 %
20.07.2019 00:29 18,9 C 15,0 C 61 % 1016,1 hPa 0,0 l/m 1,6 km/h (1 Bft) O 90 0 min 0,000 mm 0,0 UV-I 0 W/m 11,2 C 18,9 C 3,2 km/h (1 Bft) 100,00 %
20.07.2019 00:28 18,9 C 15,0 C 61 % 1016,0 hPa 0,0 l/m 1,6 km/h (1 Bft) O 90 0 min 0,000 mm 0,0 UV-I 0 W/m 11,2 C 18,9 C 3,2 km/h (1 Bft) 100,00 %
20.07.2019 00:27 18,9 C 15,0 C 61 % 1016,1 hPa 0,0 l/m 1,6 km/h (1 Bft) O 90 0 min 0,000 mm 0,0 UV-I 0 W/m 11,2 C 18,9 C 3,2 km/h (1 Bft) 100,00 %
20.07.2019 00:26 18,9 C 15,0 C 61 % 1016,2 hPa 0,0 l/m 1,6 km/h (1 Bft) O 90 0 min 0,000 mm 0,0 UV-I 0 W/m 11,2 C 18,9 C 3,2 km/h (1 Bft) 100,00 %
20.07.2019 00:25 18,9 C 15,0 C 61 % 1016,1 hPa 0,0 l/m 3,2 km/h (1 Bft) O 90 0 min 0,000 mm 0,0 UV-I 0 W/m 11,2 C 18,9 C 4,8 km/h (1 Bft) 95,65 %
20.07.2019 00:24 18,9 C 15,0 C 61 % 1016,1 hPa 0,0 l/m 3,2 km/h (1 Bft) O 90 0 min 0,000 mm 0,0 UV-I 0 W/m 11,2 C 18,9 C 4,8 km/h (1 Bft) 100,00 %
20.07.2019 00:23 18,9 C 15,0 C 61 % 1016,1 hPa 0,0 l/m 3,2 km/h (1 Bft) O 90 0 min 0,000 mm 0,0 UV-I 0 W/m 11,2 C 18,9 C 4,8 km/h (1 Bft) 100,00 %
20.07.2019 00:22 18,9 C 15,0 C 61 % 1016,1 hPa 0,0 l/m 1,6 km/h (1 Bft) O 90 0 min 0,000 mm 0,0 UV-I 0 W/m 11,2 C 18,9 C 3,2 km/h (1 Bft) 95,65 %
20.07.2019 00:21 19,0 C 15,0 C 61 % 1016,1 hPa 0,0 l/m 3,2 km/h (1 Bft) O 90 0 min 0,000 mm 0,0 UV-I 0 W/m 11,3 C 19,0 C 4,8 km/h (1 Bft) 100,00 %
20.07.2019 00:20 19,0 C 15,6 C 61 % 1016,2 hPa 0,0 l/m 0,0 km/h (0 Bft) O 90 0 min 0,000 mm 0,0 UV-I 0 W/m 11,3 C 19,0 C 1,6 km/h (1 Bft) 100,00 %
20.07.2019 00:19 19,1 C 15,6 C 61 % 1016,1 hPa 0,0 l/m 1,6 km/h (1 Bft) O 90 0 min 0,000 mm 0,0 UV-I 0 W/m 11,4 C 19,1 C 3,2 km/h (1 Bft) 100,00 %
20.07.2019 00:18 19,1 C 15,6 C 60 % 1016,1 hPa 0,0 l/m 1,6 km/h (1 Bft) O 90 0 min 0,000 mm 0,0 UV-I 0 W/m 11,1 C 19,1 C 3,2 km/h (1 Bft) 100,00 %
20.07.2019 00:17 19,1 C 15,6 C 60 % 1016,1 hPa 0,0 l/m 3,2 km/h (1 Bft) O 90 0 min 0,000 mm 0,0 UV-I 0 W/m 11,1 C 19,1 C 4,8 km/h (1 Bft) 95,65 %
20.07.2019 00:16 19,1 C 15,6 C 60 % 1016,1 hPa 0,0 l/m 3,2 km/h (1 Bft) O 90 0 min 0,000 mm 0,0 UV-I 0 W/m 11,1 C 19,1 C 4,8 km/h (1 Bft) 95,65 %
20.07.2019 00:15 19,2 C 15,6 C 60 % 1016,1 hPa 0,0 l/m 3,2 km/h (1 Bft) O 90 0 min 0,000 mm 0,0 UV-I 0 W/m 11,2 C 19,2 C 3,2 km/h (1 Bft) 100,00 %
20.07.2019 00:14 19,2 C 15,6 C 60 % 1016,2 hPa 0,0 l/m 1,6 km/h (1 Bft) O 90 0 min 0,000 mm 0,0 UV-I 0 W/m 11,2 C 19,2 C 3,2 km/h (1 Bft) 100,00 %
20.07.2019 00:13 19,2 C 15,6 C 60 % 1016,1 hPa 0,0 l/m 3,2 km/h (1 Bft) O 90 0 min 0,000 mm 0,0 UV-I 0 W/m 11,2 C 19,2 C 4,8 km/h (1 Bft) 100,00 %
20.07.2019 00:12 19,2 C 15,6 C 60 % 1016,2 hPa 0,0 l/m 1,6 km/h (1 Bft) O 90 0 min 0,000 mm 0,0 UV-I 0 W/m 11,2 C 19,2 C 3,2 km/h (1 Bft) 100,00 %
20.07.2019 00:11 19,3 C 15,6 C 60 % 1016,1 hPa 0,0 l/m 1,6 km/h (1 Bft) O 90 0 min 0,000 mm 0,0 UV-I 0 W/m 11,3 C 19,3 C 3,2 km/h (1 Bft) 100,00 %
20.07.2019 00:10 19,3 C 15,6 C 60 % 1016,1 hPa 0,0 l/m 1,6 km/h (1 Bft) O 90 0 min 0,000 mm 0,0 UV-I 0 W/m 11,3 C 19,3 C 3,2 km/h (1 Bft) 100,00 %
20.07.2019 00:09 19,3 C 15,6 C 60 % 1016,0 hPa 0,0 l/m 1,6 km/h (1 Bft) O 90 0 min 0,000 mm 0,0 UV-I 0 W/m 11,3 C 19,3 C 3,2 km/h (1 Bft) 100,00 %
20.07.2019 00:08 19,4 C 15,6 C 59 % 1016,1 hPa 0,0 l/m 1,6 km/h (1 Bft) O 90 0 min 0,000 mm 0,0 UV-I 0 W/m 11,2 C 19,4 C 3,2 km/h (1 Bft) 95,65 %
20.07.2019 00:07 19,5 C 15,6 C 59 % 1016,1 hPa 0,0 l/m 1,6 km/h (1 Bft) O 90 0 min 0,000 mm 0,0 UV-I 0 W/m 11,3 C 19,5 C 4,8 km/h (1 Bft) 100,00 %
20.07.2019 00:06 19,6 C 15,6 C 59 % 1016,0 hPa 0,0 l/m 1,6 km/h (1 Bft) O 90 0 min 0,000 mm 0,0 UV-I 0 W/m 11,4 C 19,6 C 3,2 km/h (1 Bft) 91,30 %
20.07.2019 00:05 19,6 C 15,6 C 59 % 1016,1 hPa 0,0 l/m 1,6 km/h (1 Bft) O 90 0 min 0,000 mm 0,0 UV-I 0 W/m 11,4 C 19,6 C 3,2 km/h (1 Bft) 91,30 %
20.07.2019 00:04 19,7 C 15,6 C 59 % 1016,0 hPa 0,0 l/m 1,6 km/h (1 Bft) O 90 0 min 0,000 mm 0,0 UV-I 0 W/m 11,5 C 19,7 C 3,2 km/h (1 Bft) 100,00 %
20.07.2019 00:03 19,7 C 15,6 C 58 % 1016,0 hPa 0,0 l/m 3,2 km/h (1 Bft) O 90 0 min 0,000 mm 0,0 UV-I 0 W/m 11,2 C 19,7 C 3,2 km/h (1 Bft) 100,00 %
20.07.2019 00:02 19,7 C 15,6 C 59 % 1016,1 hPa 0,0 l/m 3,2 km/h (1 Bft) O 90 0 min 0,000 mm 0,0 UV-I 0 W/m 11,5 C 19,7 C 3,2 km/h (1 Bft) 100,00 %
20.07.2019 00:01 19,8 C 15,6 C 58 % 1016,1 hPa 0,0 l/m 1,6 km/h (1 Bft) O 90 0 min 0,000 mm 0,0 UV-I 0 W/m 11,3 C 19,8 C 3,2 km/h (1 Bft) 91,30 %
20.07.2019 00:00 19,8 C 15,6 C 58 % 1016,1 hPa 0,0 l/m 3,2 km/h (1 Bft) O 90 0 min 0,051 mm 0,0 UV-I 0 W/m 11,3 C 19,8 C 3,2 km/h (1 Bft) 95,65 %
_ Min-Zeit 05:05 05:12 03:12 03:19 - 00:20 - - - - - - 05:05 05:05 01:40 01:17
Minimum _ 16,3 C 13,3 C 57 % 1015,4 hPa - 0,0 km/h (0 Bft) - - - - - - 9,9 C 16,3 C 0,0 km/h (0 Bft) 86,96 %
_ Max-Zeit 09:30 09:30 05:02 09:20 00:00 08:58 - - 07:49 09:00 09:29 09:29 09:30 09:30 09:25 00:02
Maximum _ 20,9 C 28,9 C 66 % 1016,3 hPa 0,0 l/m 8,0 km/h
SO (2 Bft)
- - 1 min 0,178 mm 2,8 UV-I 527 W/m 13,1 C 20,9 C 14,5 km/h
SO (3 Bft)
100,00 %
Durchschnitt _ 18,4 C 16,8 C 62 % 1015,8 hPa #0,0 l/m 1,4 km/h (1 Bft) O - #1:35 h #0,585 mm 1,4 UV-I 165 W/m 11,0 C 18,4 C 2,5 km/h (1 Bft) 98,32 %